Wetterdaten: Mittwoch, 11.11.2009
Datum Zeit Temp. Innen Temp. Aussen UV X Diff Temp. Feuchte Inne Feuchte Auss Sonnenschein Luftdruck Regen ab 0,1 Wind Sonnenschein Windben
11.11.2009 00:06 14,3 C 7,9 C 0,0 UV-I 0,0 C 58 % 89 % 0 % 1007,7 hPa 0,0 l/m 2,9 km/h (1 Bft) 0 min 5,3 km/h (1 Bft)
11.11.2009 00:10 14,1 C 7,9 C 0,0 UV-I 0,0 C 58 % 89 % 0 % 1007,7 hPa 0,0 l/m 2,9 km/h (1 Bft) 0 min 4,6 km/h (1 Bft)
11.11.2009 00:12 14,1 C 7,9 C 0,0 UV-I 0,0 C 58 % 89 % 0 % 1007,7 hPa 0,0 l/m 2,6 km/h (1 Bft) 0 min 4,6 km/h (1 Bft)
11.11.2009 00:14 14,1 C 7,8 C 0,0 UV-I 0,0 C 58 % 89 % 0 % 1007,8 hPa 0,0 l/m 2,4 km/h (1 Bft) 0 min 4,6 km/h (1 Bft)
11.11.2009 00:16 14,2 C 7,8 C 0,0 UV-I 0,0 C 58 % 89 % 0 % 1007,8 hPa 0,0 l/m 2,4 km/h (1 Bft) 0 min 6,3 km/h (2 Bft)
11.11.2009 00:18 14,2 C 7,7 C 0,0 UV-I 0,0 C 58 % 89 % 0 % 1007,8 hPa 0,0 l/m 2,4 km/h (1 Bft) 0 min 4,3 km/h (1 Bft)
11.11.2009 00:22 14,2 C 7,7 C 0,0 UV-I 0,0 C 58 % 89 % 0 % 1007,8 hPa 0,0 l/m 2,4 km/h (1 Bft) 0 min 3,8 km/h (1 Bft)
11.11.2009 00:24 14,2 C 7,7 C 0,0 UV-I 0,0 C 58 % 89 % 0 % 1007,8 hPa 0,0 l/m 2,4 km/h (1 Bft) 0 min 3,4 km/h (1 Bft)
11.11.2009 00:26 14,2 C 7,7 C 0,0 UV-I 0,0 C 58 % 89 % 0 % 1007,8 hPa 0,0 l/m 2,6 km/h (1 Bft) 0 min 5,1 km/h (1 Bft)
11.11.2009 00:32 14,2 C 7,6 C 0,0 UV-I 0,0 C 58 % 89 % 0 % 1007,8 hPa 0,0 l/m 2,9 km/h (1 Bft) 0 min 8,4 km/h (2 Bft)
11.11.2009 00:34 14,2 C 7,6 C 0,0 UV-I 0,0 C 58 % 89 % 0 % 1007,4 hPa 0,0 l/m 2,9 km/h (1 Bft) 0 min 4,1 km/h (1 Bft)
11.11.2009 00:36 14,2 C 7,6 C 0,0 UV-I 0,0 C 58 % 89 % 0 % 1007,4 hPa 0,0 l/m 3,1 km/h (1 Bft) 0 min 4,6 km/h (1 Bft)
11.11.2009 00:38 14,2 C 7,6 C 0,0 UV-I 0,0 C 58 % 89 % 0 % 1007,4 hPa 0,0 l/m 3,1 km/h (1 Bft) 0 min 5,8 km/h (2 Bft)
11.11.2009 00:42 14,2 C 7,6 C 0,0 UV-I 0,0 C 58 % 89 % 0 % 1007,4 hPa 0,0 l/m 2,9 km/h (1 Bft) 0 min 5,8 km/h (2 Bft)
11.11.2009 00:44 14,1 C 7,6 C 0,0 UV-I 0,0 C 58 % 89 % 0 % 1007,4 hPa 0,0 l/m 2,9 km/h (1 Bft) 0 min 3,4 km/h (1 Bft)
11.11.2009 00:46 14,1 C 7,6 C 0,0 UV-I 0,0 C 58 % 89 % 0 % 1007,4 hPa 0,0 l/m 3,1 km/h (1 Bft) 0 min 5,8 km/h (2 Bft)
11.11.2009 00:48 14,1 C 7,5 C 0,0 UV-I 0,0 C 58 % 89 % 0 % 1007,4 hPa 0,0 l/m 2,9 km/h (1 Bft) 0 min 5,1 km/h (1 Bft)
11.11.2009 00:50 14,1 C 7,5 C 0,0 UV-I 0,0 C 58 % 89 % 0 % 1007,4 hPa 0,0 l/m 2,9 km/h (1 Bft) 0 min 7,7 km/h (2 Bft)
11.11.2009 00:52 14,1 C 7,5 C 0,0 UV-I 0,0 C 58 % 89 % 0 % 1007,4 hPa 0,0 l/m 3,1 km/h (1 Bft) 0 min 7,7 km/h (2 Bft)
11.11.2009 00:56 14,1 C 7,5 C 0,0 UV-I 0,0 C 58 % 89 % 0 % 1007,5 hPa 0,0 l/m 3,1 km/h (1 Bft) 0 min 5,3 km/h (1 Bft)
11.11.2009 00:58 14,1 C 7,4 C 0,0 UV-I 0,0 C 58 % 89 % 0 % 1007,5 hPa 0,0 l/m 2,6 km/h (1 Bft) 0 min 5,8 km/h (2 Bft)
11.11.2009 01:00 14,1 C 7,5 C 0,0 UV-I 0,0 C 58 % 89 % 0 % 1007,5 hPa 0,0 l/m 2,6 km/h (1 Bft) 0 min 6,3 km/h (2 Bft)
11.11.2009 01:02 14,1 C 7,5 C 0,0 UV-I 0,0 C 58 % 89 % 0 % 1007,5 hPa 0,0 l/m 2,6 km/h (1 Bft) 0 min 6,7 km/h (2 Bft)
11.11.2009 01:04 14,1 C 7,5 C 0,0 UV-I 0,0 C 58 % 89 % 0 % 1007,5 hPa 0,0 l/m 2,9 km/h (1 Bft) 0 min 4,8 km/h (1 Bft)
11.11.2009 01:10 14,1 C 7,3 C 0,0 UV-I 0,0 C 58 % 89 % 0 % 1007,5 hPa 0,0 l/m 3,1 km/h (1 Bft) 0 min 4,8 km/h (1 Bft)
11.11.2009 01:12 13,9 C 7,3 C 0,0 UV-I 0,0 C 58 % 89 % 0 % 1007,5 hPa 0,0 l/m 2,9 km/h (1 Bft) 0 min 11,1 km/h (2 Bft)
11.11.2009 01:14 13,9 C 7,3 C 0,0 UV-I 0,0 C 58 % 89 % 0 % 1007,7 hPa 0,0 l/m 2,6 km/h (1 Bft) 0 min 5,8 km/h (2 Bft)
11.11.2009 01:19 13,9 C 7,2 C 0,0 UV-I 0,0 C 58 % 89 % 0 % 1007,7 hPa 0,0 l/m 2,9 km/h (1 Bft) 0 min 6,7 km/h (2 Bft)
11.11.2009 01:21 13,9 C 7,2 C 0,0 UV-I 0,0 C 58 % 89 % 0 % 1007,7 hPa 0,0 l/m 3,1 km/h (1 Bft) 0 min 4,1 km/h (1 Bft)
11.11.2009 01:24 14,0 C 7,3 C 0,0 UV-I 0,0 C 58 % 89 % 0 % 1007,7 hPa 0,0 l/m 2,9 km/h (1 Bft) 0 min 4,1 km/h (1 Bft)
11.11.2009 01:26 14,0 C 7,2 C 0,0 UV-I 0,0 C 58 % 89 % 0 % 1007,7 hPa 0,0 l/m 2,9 km/h (1 Bft) 0 min 5,5 km/h (1 Bft)
11.11.2009 01:28 14,0 C 7,2 C 0,0 UV-I 0,0 C 58 % 89 % 0 % 1007,7 hPa 0,0 l/m 2,9 km/h (1 Bft) 0 min 5,5 km/h (1 Bft)
11.11.2009 01:30 14,0 C 7,1 C 0,0 UV-I 0,0 C 58 % 89 % 0 % 1007,7 hPa 0,0 l/m 2,9 km/h (1 Bft) 0 min 7,0 km/h (2 Bft)
11.11.2009 01:34 14,0 C 7,1 C 0,0 UV-I 0,0 C 58 % 89 % 0 % 1007,2 hPa 0,0 l/m 2,6 km/h (1 Bft) 0 min 7,0 km/h (2 Bft)
11.11.2009 01:36 14,0 C 7,1 C 0,0 UV-I 0,0 C 58 % 89 % 0 % 1007,2 hPa 0,0 l/m 3,1 km/h (1 Bft) 0 min 4,8 km/h (1 Bft)
11.11.2009 01:38 14,0 C 7,1 C 0,0 UV-I 0,0 C 58 % 89 % 0 % 1007,2 hPa 0,0 l/m 2,9 km/h (1 Bft) 0 min 2,9 km/h (1 Bft)
11.11.2009 01:40 14,0 C 7,0 C 0,0 UV-I 0,0 C 58 % 89 % 0 % 1007,2 hPa 0,0 l/m 2,6 km/h (1 Bft) 0 min 3,4 km/h (1 Bft)
11.11.2009 01:44 13,8 C 7,1 C 0,0 UV-I 0,0 C 58 % 89 % 0 % 1007,2 hPa 0,0 l/m 2,4 km/h (1 Bft) 0 min 3,4 km/h (1 Bft)
11.11.2009 01:48 13,8 C 6,9 C 0,0 UV-I 0,0 C 58 % 89 % 0 % 1007,2 hPa 0,0 l/m 1,9 km/h (1 Bft) 0 min 3,8 km/h (1 Bft)
11.11.2009 01:50 13,9 C 6,9 C 0,0 UV-I 0,0 C 58 % 89 % 0 % 1007,2 hPa 0,0 l/m 1,9 km/h (1 Bft) 0 min 3,8 km/h (1 Bft)
11.11.2009 01:52 13,9 C 6,9 C 0,0 UV-I 0,0 C 58 % 89 % 0 % 1007,2 hPa 0,0 l/m 2,2 km/h (1 Bft) 0 min 4,8 km/h (1 Bft)
11.11.2009 01:54 13,9 C 6,9 C 0,0 UV-I 0,0 C 58 % 90 % 0 % 1007,3 hPa 0,0 l/m 2,4 km/h (1 Bft) 0 min 4,8 km/h (1 Bft)
11.11.2009 01:56 13,9 C 6,9 C 0,0 UV-I 0,0 C 58 % 90 % 0 % 1007,3 hPa 0,0 l/m 2,4 km/h (1 Bft) 0 min 2,6 km/h (1 Bft)
11.11.2009 01:58 13,9 C 6,8 C 0,0 UV-I 0,0 C 58 % 90 % 0 % 1007,3 hPa 0,0 l/m 2,4 km/h (1 Bft) 0 min 4,3 km/h (1 Bft)
11.11.2009 02:00 13,9 C 6,8 C 0,0 UV-I 0,0 C 58 % 90 % 0 % 1007,3 hPa 0,0 l/m 2,4 km/h (1 Bft) 0 min 4,3 km/h (1 Bft)
11.11.2009 02:02 13,9 C 6,9 C 0,0 UV-I 0,0 C 58 % 90 % 0 % 1007,3 hPa 0,0 l/m 2,9 km/h (1 Bft) 0 min 5,5 km/h (1 Bft)
11.11.2009 02:04 13,8 C 6,9 C 0,0 UV-I 0,0 C 58 % 90 % 0 % 1007,3 hPa 0,0 l/m 2,9 km/h (1 Bft) 0 min 5,5 km/h (1 Bft)
11.11.2009 02:06 13,8 C 6,8 C 0,0 UV-I 0,0 C 58 % 90 % 0 % 1007,3 hPa 0,0 l/m 3,4 km/h (1 Bft) 0 min 6,3 km/h (2 Bft)
11.11.2009 02:08 13,8 C 6,8 C 0,0 UV-I 0,0 C 58 % 90 % 0 % 1007,3 hPa 0,0 l/m 3,4 km/h (1 Bft) 0 min 6,3 km/h (2 Bft)
11.11.2009 02:10 13,8 C 6,8 C 0,0 UV-I 0,0 C 58 % 90 % 0 % 1007,3 hPa 0,0 l/m 3,6 km/h (1 Bft) 0 min 5,5 km/h (1 Bft)
11.11.2009 02:12 13,8 C 6,8 C 0,0 UV-I 0,0 C 58 % 90 % 0 % 1007,3 hPa 0,0 l/m 3,6 km/h (1 Bft) 0 min 12,8 km/h (3 Bft)
11.11.2009 02:16 13,8 C 6,7 C 0,0 UV-I 0,0 C 58 % 90 % 0 % 1007,1 hPa 0,0 l/m 3,6 km/h (1 Bft) 0 min 7,0 km/h (2 Bft)
11.11.2009 02:18 13,8 C 6,7 C 0,0 UV-I 0,0 C 58 % 90 % 0 % 1007,1 hPa 0,0 l/m 3,4 km/h (1 Bft) 0 min 7,0 km/h (2 Bft)
11.11.2009 02:20 13,8 C 6,7 C 0,0 UV-I 0,0 C 58 % 90 % 0 % 1007,1 hPa 0,0 l/m 3,4 km/h (1 Bft) 0 min 7,0 km/h (2 Bft)
11.11.2009 02:22 13,8 C 6,6 C 0,0 UV-I 0,0 C 58 % 90 % 0 % 1007,1 hPa 0,0 l/m 3,1 km/h (1 Bft) 0 min 5,3 km/h (1 Bft)
11.11.2009 02:24 13,8 C 6,6 C 0,0 UV-I 0,0 C 57 % 90 % 0 % 1007,1 hPa 0,0 l/m 2,6 km/h (1 Bft) 0 min 2,9 km/h (1 Bft)
11.11.2009 02:34 13,6 C 6,7 C 0,0 UV-I 0,0 C 58 % 90 % 0 % 1007,7 hPa 0,0 l/m 2,9 km/h (1 Bft) 0 min 8,4 km/h (2 Bft)
11.11.2009 02:36 13,6 C 6,6 C 0,0 UV-I 0,0 C 58 % 90 % 0 % 1007,7 hPa 0,0 l/m 3,1 km/h (1 Bft) 0 min 4,8 km/h (1 Bft)
11.11.2009 02:38 13,6 C 6,6 C 0,0 UV-I 0,0 C 58 % 90 % 0 % 1007,7 hPa 0,0 l/m 2,9 km/h (1 Bft) 0 min 3,6 km/h (1 Bft)
11.11.2009 02:40 13,7 C 6,6 C 0,0 UV-I 0,0 C 58 % 90 % 0 % 1007,7 hPa 0,0 l/m 2,6 km/h (1 Bft) 0 min 3,6 km/h (1 Bft)
11.11.2009 02:42 13,7 C 6,5 C 0,0 UV-I 0,0 C 58 % 90 % 0 % 1007,7 hPa 0,0 l/m 1,9 km/h (1 Bft) 0 min 2,4 km/h (1 Bft)
11.11.2009 02:44 13,7 C 6,5 C 0,0 UV-I 0,0 C 58 % 90 % 0 % 1007,7 hPa 0,0 l/m 2,2 km/h (1 Bft) 0 min 11,3 km/h (2 Bft)
11.11.2009 02:46 13,6 C 6,5 C 0,0 UV-I 0,0 C 58 % 90 % 0 % 1007,7 hPa 0,0 l/m 2,4 km/h (1 Bft) 0 min 11,3 km/h (2 Bft)
11.11.2009 02:50 13,7 C 6,5 C 0,0 UV-I 0,0 C 58 % 90 % 0 % 1007,7 hPa 0,0 l/m 2,4 km/h (1 Bft) 0 min 5,8 km/h (2 Bft)
11.11.2009 02:54 13,7 C 6,5 C 0,0 UV-I 0,0 C 58 % 90 % 0 % 1007,2 hPa 0,0 l/m 3,4 km/h (1 Bft) 0 min 4,8 km/h (1 Bft)
11.11.2009 03:00 13,6 C 6,5 C 0,0 UV-I 0,0 C 58 % 90 % 0 % 1007,2 hPa 0,0 l/m 3,4 km/h (1 Bft) 0 min 5,5 km/h (1 Bft)
11.11.2009 03:02 13,6 C 6,5 C 0,0 UV-I 0,0 C 58 % 90 % 0 % 1007,2 hPa 0,0 l/m 3,6 km/h (1 Bft) 0 min 5,5 km/h (1 Bft)
11.11.2009 03:06 13,6 C 6,5 C 0,0 UV-I 0,0 C 58 % 90 % 0 % 1007,2 hPa 0,0 l/m 3,1 km/h (1 Bft) 0 min 4,8 km/h (1 Bft)
11.11.2009 03:12 13,6 C 6,5 C 0,0 UV-I 0,0 C 58 % 90 % 0 % 1007,2 hPa 0,0 l/m 1,9 km/h (1 Bft) 0 min 5,1 km/h (1 Bft)
11.11.2009 03:14 13,6 C 6,5 C 0,0 UV-I 0,0 C 58 % 90 % 0 % 1007,2 hPa 0,0 l/m 1,7 km/h (1 Bft) 0 min 5,3 km/h (1 Bft)
11.11.2009 03:18 13,6 C 6,5 C 0,0 UV-I 0,0 C 58 % 90 % 0 % 1007,2 hPa 0,0 l/m 1,2 km/h (1 Bft) 0 min 5,1 km/h (1 Bft)
11.11.2009 03:20 13,6 C 6,5 C 0,0 UV-I 0,0 C 58 % 90 % 0 % 1007,2 hPa 0,0 l/m 1,7 km/h (1 Bft) 0 min 5,1 km/h (1 Bft)
11.11.2009 03:24 13,6 C 6,5 C 0,0 UV-I 0,0 C 58 % 90 % 0 % 1007,2 hPa 0,0 l/m 2,6 km/h (1 Bft) 0 min 7,2 km/h (2 Bft)
11.11.2009 03:34 13,6 C 6,5 C 0,0 UV-I 0,0 C 58 % 90 % 0 % 1007,0 hPa 0,0 l/m 2,9 km/h (1 Bft) 0 min 6,3 km/h (2 Bft)
11.11.2009 03:36 13,6 C 6,5 C 0,0 UV-I 0,0 C 58 % 90 % 0 % 1007,0 hPa 0,0 l/m 2,9 km/h (1 Bft) 0 min 3,4 km/h (1 Bft)
11.11.2009 03:38 13,6 C 6,5 C 0,0 UV-I 0,0 C 58 % 90 % 0 % 1007,0 hPa 0,0 l/m 2,6 km/h (1 Bft) 0 min 3,4 km/h (1 Bft)
11.11.2009 03:48 13,6 C 6,5 C 0,0 UV-I 0,0 C 58 % 90 % 0 % 1007,0 hPa 0,0 l/m 2,2 km/h (1 Bft) 0 min 8,7 km/h (2 Bft)
11.11.2009 03:50 13,6 C 6,5 C 0,0 UV-I 0,0 C 58 % 90 % 0 % 1007,0 hPa 0,0 l/m 2,6 km/h (1 Bft) 0 min 5,1 km/h (1 Bft)
11.11.2009 03:52 13,6 C 6,4 C 0,0 UV-I 0,0 C 58 % 90 % 0 % 1007,0 hPa 0,0 l/m 2,4 km/h (1 Bft) 0 min 5,1 km/h (1 Bft)
11.11.2009 03:54 13,6 C 6,5 C 0,0 UV-I 0,0 C 58 % 90 % 0 % 1006,8 hPa 0,0 l/m 2,2 km/h (1 Bft) 0 min 4,3 km/h (1 Bft)
11.11.2009 03:56 13,6 C 6,4 C 0,0 UV-I 0,0 C 58 % 91 % 0 % 1006,8 hPa 0,0 l/m 2,4 km/h (1 Bft) 0 min 3,1 km/h (1 Bft)
11.11.2009 04:06 13,4 C 6,4 C 0,0 UV-I 0,0 C 58 % 91 % 0 % 1006,8 hPa 0,0 l/m 2,9 km/h (1 Bft) 0 min 6,3 km/h (2 Bft)
11.11.2009 04:08 13,5 C 6,4 C 0,0 UV-I 0,0 C 58 % 91 % 0 % 1006,8 hPa 0,0 l/m 2,9 km/h (1 Bft) 0 min 7,7 km/h (2 Bft)
11.11.2009 04:10 13,4 C 6,4 C 0,0 UV-I 0,0 C 58 % 91 % 0 % 1006,8 hPa 0,0 l/m 2,6 km/h (1 Bft) 0 min 7,7 km/h (2 Bft)
11.11.2009 04:14 13,5 C 6,4 C 0,0 UV-I 0,0 C 58 % 91 % 0 % 1006,8 hPa 0,0 l/m 2,9 km/h (1 Bft) 0 min 5,3 km/h (1 Bft)
11.11.2009 04:15 13,5 C 6,5 C 0,0 UV-I 0,0 C 58 % 91 % 0 % 1006,8 hPa 0,0 l/m 2,9 km/h (1 Bft) 0 min 9,1 km/h (2 Bft)
11.11.2009 04:16 13,5 C 6,5 C 0,0 UV-I 0,0 C 58 % 91 % 0 % 1006,8 hPa 0,0 l/m 2,9 km/h (1 Bft) 0 min 9,1 km/h (2 Bft)
11.11.2009 04:18 13,5 C 6,4 C 0,0 UV-I 0,0 C 58 % 91 % 0 % 1006,8 hPa 0,0 l/m 2,6 km/h (1 Bft) 0 min 9,1 km/h (2 Bft)
11.11.2009 04:20 13,5 C 6,4 C 0,0 UV-I 0,0 C 58 % 91 % 0 % 1006,8 hPa 0,0 l/m 3,1 km/h (1 Bft) 0 min 6,5 km/h (2 Bft)
11.11.2009 04:22 13,5 C 6,5 C 0,0 UV-I 0,0 C 58 % 91 % 0 % 1006,8 hPa 0,0 l/m 3,1 km/h (1 Bft) 0 min 5,8 km/h (2 Bft)
11.11.2009 04:24 13,5 C 6,4 C 0,0 UV-I 0,0 C 58 % 91 % 0 % 1006,8 hPa 0,0 l/m 3,4 km/h (1 Bft) 0 min 4,8 km/h (1 Bft)
11.11.2009 04:26 13,5 C 6,4 C 0,0 UV-I 0,0 C 58 % 91 % 0 % 1006,8 hPa 0,0 l/m 2,9 km/h (1 Bft) 0 min 4,1 km/h (1 Bft)
11.11.2009 04:28 13,5 C 6,5 C 0,0 UV-I 0,0 C 58 % 91 % 0 % 1006,8 hPa 0,0 l/m 2,6 km/h (1 Bft) 0 min 4,3 km/h (1 Bft)
11.11.2009 04:30 13,5 C 6,5 C 0,0 UV-I 0,0 C 58 % 91 % 0 % 1006,8 hPa 0,0 l/m 2,4 km/h (1 Bft) 0 min 7,5 km/h (2 Bft)
11.11.2009 04:32 13,5 C 6,5 C 0,0 UV-I 0,0 C 58 % 91 % 0 % 1006,8 hPa 0,0 l/m 2,6 km/h (1 Bft) 0 min 7,5 km/h (2 Bft)
11.11.2009 04:34 13,5 C 6,5 C 0,0 UV-I 0,0 C 58 % 91 % 0 % 1006,9 hPa 0,0 l/m 2,4 km/h (1 Bft) 0 min 4,3 km/h (1 Bft)
11.11.2009 04:36 13,5 C 6,4 C 0,0 UV-I 0,0 C 58 % 91 % 0 % 1006,9 hPa 0,0 l/m 2,9 km/h (1 Bft) 0 min 7,9 km/h (2 Bft)
11.11.2009 04:38 13,5 C 6,4 C 0,0 UV-I 0,0 C 58 % 91 % 0 % 1006,9 hPa 0,0 l/m 3,1 km/h (1 Bft) 0 min 7,9 km/h (2 Bft)
11.11.2009 04:40 13,5 C 6,4 C 0,0 UV-I 0,0 C 58 % 91 % 0 % 1006,9 hPa 0,0 l/m 3,4 km/h (1 Bft) 0 min 7,7 km/h (2 Bft)
11.11.2009 04:42 13,5 C 6,5 C 0,0 UV-I 0,0 C 58 % 91 % 0 % 1006,9 hPa 0,0 l/m 3,1 km/h (1 Bft) 0 min 7,7 km/h (2 Bft)
11.11.2009 04:44 13,5 C 6,5 C 0,0 UV-I 0,0 C 58 % 91 % 0 % 1006,9 hPa 0,0 l/m 2,4 km/h (1 Bft) 0 min 3,8 km/h (1 Bft)
11.11.2009 04:46 13,5 C 6,5 C 0,0 UV-I 0,0 C 58 % 91 % 0 % 1006,9 hPa 0,0 l/m 2,2 km/h (1 Bft) 0 min 0,0 km/h (0 Bft)
11.11.2009 04:48 13,3 C 6,4 C 0,0 UV-I 0,0 C 58 % 91 % 0 % 1006,9 hPa 0,0 l/m 1,9 km/h (1 Bft) 0 min 0,0 km/h (0 Bft)
11.11.2009 04:50 13,5 C 6,5 C 0,0 UV-I 0,0 C 58 % 91 % 0 % 1006,9 hPa 0,0 l/m 1,9 km/h (1 Bft) 0 min 5,8 km/h (2 Bft)
11.11.2009 04:52 13,5 C 6,4 C 0,0 UV-I 0,0 C 58 % 91 % 0 % 1006,9 hPa 0,0 l/m 1,9 km/h (1 Bft) 0 min 5,8 km/h (2 Bft)
11.11.2009 04:54 13,5 C 6,4 C 0,0 UV-I 0,0 C 58 % 91 % 0 % 1007,0 hPa 0,0 l/m 2,4 km/h (1 Bft) 0 min 3,6 km/h (1 Bft)
11.11.2009 04:56 13,5 C 6,4 C 0,0 UV-I 0,0 C 58 % 91 % 0 % 1007,0 hPa 0,0 l/m 3,1 km/h (1 Bft) 0 min 4,8 km/h (1 Bft)
11.11.2009 04:58 13,5 C 6,4 C 0,0 UV-I 0,0 C 58 % 91 % 0 % 1007,0 hPa 0,0 l/m 2,9 km/h (1 Bft) 0 min 4,8 km/h (1 Bft)
11.11.2009 05:00 13,5 C 6,4 C 0,0 UV-I 0,0 C 58 % 91 % 0 % 1007,0 hPa 0,0 l/m 2,9 km/h (1 Bft) 0 min 3,1 km/h (1 Bft)
11.11.2009 05:02 13,5 C 6,4 C 0,0 UV-I 0,0 C 58 % 91 % 0 % 1007,0 hPa 0,0 l/m 2,9 km/h (1 Bft) 0 min 2,9 km/h (1 Bft)
11.11.2009 05:04 13,3 C 6,4 C 0,0 UV-I 0,0 C 58 % 91 % 0 % 1007,0 hPa 0,0 l/m 2,6 km/h (1 Bft) 0 min 5,1 km/h (1 Bft)
11.11.2009 05:06 13,5 C 6,5 C 0,0 UV-I 0,0 C 58 % 91 % 0 % 1007,0 hPa 0,0 l/m 2,6 km/h (1 Bft) 0 min 5,1 km/h (1 Bft)
11.11.2009 05:08 13,3 C 6,4 C 0,0 UV-I 0,0 C 58 % 91 % 0 % 1007,0 hPa 0,0 l/m 2,6 km/h (1 Bft) 0 min 3,4 km/h (1 Bft)
11.11.2009 05:10 13,3 C 6,4 C 0,0 UV-I 0,0 C 58 % 91 % 0 % 1007,0 hPa 0,0 l/m 2,4 km/h (1 Bft) 0 min 3,4 km/h (1 Bft)
11.11.2009 05:12 13,3 C 6,5 C 0,0 UV-I 0,0 C 58 % 91 % 0 % 1007,0 hPa 0,0 l/m 1,9 km/h (1 Bft) 0 min 0,0 km/h (0 Bft)
11.11.2009 05:14 13,4 C 6,5 C 0,0 UV-I 0,0 C 58 % 91 % 0 % 1006,6 hPa 0,0 l/m 2,2 km/h (1 Bft) 0 min 4,3 km/h (1 Bft)
11.11.2009 05:16 13,3 C 6,5 C 0,0 UV-I 0,0 C 58 % 91 % 0 % 1006,6 hPa 0,0 l/m 1,9 km/h (1 Bft) 0 min 6,0 km/h (2 Bft)
11.11.2009 05:18 13,4 C 6,5 C 0,0 UV-I 0,0 C 58 % 91 % 0 % 1006,6 hPa 0,0 l/m 1,9 km/h (1 Bft) 0 min 6,0 km/h (2 Bft)
11.11.2009 05:20 13,3 C 6,5 C 0,0 UV-I 0,0 C 58 % 91 % 0 % 1006,6 hPa 0,0 l/m 1,9 km/h (1 Bft) 0 min 3,4 km/h (1 Bft)
11.11.2009 05:22 13,3 C 6,5 C 0,0 UV-I 0,0 C 58 % 91 % 0 % 1006,6 hPa 0,0 l/m 1,9 km/h (1 Bft) 0 min 3,4 km/h (1 Bft)
11.11.2009 05:24 13,4 C 6,5 C 0,0 UV-I 0,0 C 58 % 91 % 0 % 1006,6 hPa 0,0 l/m 1,9 km/h (1 Bft) 0 min 6,3 km/h (2 Bft)
11.11.2009 05:26 13,4 C 6,5 C 0,0 UV-I 0,0 C 58 % 91 % 0 % 1006,6 hPa 0,0 l/m 1,7 km/h (1 Bft) 0 min 6,3 km/h (2 Bft)
11.11.2009 05:28 13,4 C 6,5 C 0,0 UV-I 0,0 C 58 % 91 % 0 % 1006,6 hPa 0,0 l/m 1,4 km/h (1 Bft) 0 min 2,9 km/h (1 Bft)
11.11.2009 05:30 13,3 C 6,5 C 0,0 UV-I 0,0 C 58 % 91 % 0 % 1006,6 hPa 0,0 l/m 1,0 km/h (0 Bft) 0 min 0,0 km/h (0 Bft)
11.11.2009 05:32 13,4 C 6,5 C 0,0 UV-I 0,0 C 58 % 91 % 0 % 1006,6 hPa 0,0 l/m 1,0 km/h (0 Bft) 0 min 2,4 km/h (1 Bft)
11.11.2009 05:34 13,3 C 6,5 C 0,0 UV-I 0,0 C 58 % 91 % 0 % 1007,1 hPa 0,0 l/m 1,0 km/h (0 Bft) 0 min 5,1 km/h (1 Bft)
11.11.2009 05:36 13,3 C 6,5 C 0,0 UV-I 0,0 C 58 % 91 % 0 % 1007,1 hPa 0,0 l/m 1,4 km/h (1 Bft) 0 min 3,6 km/h (1 Bft)
11.11.2009 05:38 13,3 C 6,5 C 0,0 UV-I 0,0 C 58 % 91 % 0 % 1007,1 hPa 0,0 l/m 1,4 km/h (1 Bft) 0 min 4,3 km/h (1 Bft)
11.11.2009 05:40 13,4 C 6,5 C 0,0 UV-I 0,0 C 58 % 91 % 0 % 1007,1 hPa 0,0 l/m 1,9 km/h (1 Bft) 0 min 5,1 km/h (1 Bft)
11.11.2009 05:42 13,4 C 6,6 C 0,0 UV-I 0,0 C 58 % 91 % 0 % 1007,1 hPa 0,0 l/m 2,2 km/h (1 Bft) 0 min 5,1 km/h (1 Bft)
11.11.2009 05:44 13,3 C 6,7 C 0,0 UV-I 0,0 C 58 % 91 % 0 % 1007,1 hPa 0,0 l/m 2,4 km/h (1 Bft) 0 min 4,8 km/h (1 Bft)
11.11.2009 05:46 13,3 C 6,7 C 0,0 UV-I 0,0 C 58 % 91 % 0 % 1007,1 hPa 0,0 l/m 1,9 km/h (1 Bft) 0 min 0,0 km/h (0 Bft)
11.11.2009 05:48 13,3 C 6,7 C 0,0 UV-I 0,0 C 58 % 91 % 0 % 1007,1 hPa 0,0 l/m 2,2 km/h (1 Bft) 0 min 5,5 km/h (1 Bft)
11.11.2009 05:50 13,4 C 6,7 C 0,0 UV-I 0,0 C 58 % 91 % 0 % 1007,1 hPa 0,0 l/m 2,2 km/h (1 Bft) 0 min 5,5 km/h (1 Bft)
11.11.2009 05:52 13,4 C 6,7 C 0,0 UV-I 0,0 C 59 % 91 % 0 % 1007,1 hPa 0,0 l/m 1,7 km/h (1 Bft) 0 min 3,8 km/h (1 Bft)
11.11.2009 05:54 13,3 C 6,7 C 0,0 UV-I 0,0 C 59 % 91 % 0 % 1007,0 hPa 0,0 l/m 1,9 km/h (1 Bft) 0 min 3,8 km/h (1 Bft)
11.11.2009 05:56 13,4 C 6,7 C 0,0 UV-I 0,0 C 59 % 91 % 0 % 1007,0 hPa 0,0 l/m 2,2 km/h (1 Bft) 0 min 5,1 km/h (1 Bft)
11.11.2009 05:58 13,4 C 6,7 C 0,0 UV-I 0,0 C 59 % 91 % 0 % 1007,0 hPa 0,0 l/m 2,6 km/h (1 Bft) 0 min 5,5 km/h (1 Bft)
11.11.2009 06:00 13,4 C 6,7 C 0,0 UV-I 0,0 C 59 % 91 % 0 % 1007,0 hPa 0,0 l/m 2,4 km/h (1 Bft) 0 min 5,5 km/h (1 Bft)
11.11.2009 06:02 13,4 C 6,6 C 0,0 UV-I 0,0 C 59 % 91 % 0 % 1007,0 hPa 0,0 l/m 2,6 km/h (1 Bft) 0 min 4,1 km/h (1 Bft)
11.11.2009 06:06 13,4 C 6,7 C 0,0 UV-I 0,0 C 59 % 91 % 0 % 1007,0 hPa 0,0 l/m 2,9 km/h (1 Bft) 0 min 4,6 km/h (1 Bft)
11.11.2009 06:08 13,4 C 6,7 C 0,0 UV-I 0,0 C 59 % 91 % 0 % 1007,0 hPa 0,0 l/m 2,6 km/h (1 Bft) 0 min 4,6 km/h (1 Bft)
11.11.2009 06:10 13,4 C 6,8 C 0,0 UV-I 0,0 C 59 % 91 % 0 % 1007,0 hPa 0,0 l/m 2,2 km/h (1 Bft) 0 min 2,9 km/h (1 Bft)
11.11.2009 06:12 13,4 C 6,8 C 0,0 UV-I 0,0 C 59 % 91 % 0 % 1007,0 hPa 0,0 l/m 1,9 km/h (1 Bft) 0 min 3,4 km/h (1 Bft)
11.11.2009 06:14 13,4 C 6,8 C 0,0 UV-I 0,0 C 59 % 91 % 0 % 1006,9 hPa 0,0 l/m 1,9 km/h (1 Bft) 0 min 3,8 km/h (1 Bft)
11.11.2009 06:16 13,4 C 6,8 C 0,0 UV-I 0,0 C 59 % 91 % 0 % 1006,9 hPa 0,0 l/m 1,7 km/h (1 Bft) 0 min 4,3 km/h (1 Bft)
11.11.2009 06:18 13,4 C 6,8 C 0,0 UV-I 0,0 C 59 % 91 % 0 % 1006,9 hPa 0,0 l/m 1,2 km/h (1 Bft) 0 min 4,3 km/h (1 Bft)
11.11.2009 06:20 13,4 C 6,8 C 0,0 UV-I 0,0 C 59 % 91 % 0 % 1006,9 hPa 0,0 l/m 1,2 km/h (1 Bft) 0 min 2,4 km/h (1 Bft)
11.11.2009 06:22 13,4 C 6,8 C 0,0 UV-I 0,0 C 59 % 91 % 0 % 1006,9 hPa 0,0 l/m 1,2 km/h (1 Bft) 0 min 0,0 km/h (0 Bft)
11.11.2009 06:24 13,4 C 6,8 C 0,0 UV-I 0,0 C 59 % 91 % 0 % 1006,9 hPa 0,0 l/m 1,2 km/h (1 Bft) 0 min 2,9 km/h (1 Bft)
11.11.2009 06:26 13,4 C 6,8 C 0,0 UV-I 0,0 C 59 % 91 % 0 % 1006,9 hPa 0,0 l/m 1,7 km/h (1 Bft) 0 min 4,8 km/h (1 Bft)
11.11.2009 06:28 13,4 C 6,9 C 0,0 UV-I 0,0 C 59 % 91 % 0 % 1006,9 hPa 0,0 l/m 1,9 km/h (1 Bft) 0 min 5,8 km/h (2 Bft)
11.11.2009 06:30 13,4 C 6,9 C 0,0 UV-I 0,0 C 59 % 91 % 0 % 1006,9 hPa 0,0 l/m 2,2 km/h (1 Bft) 0 min 5,8 km/h (2 Bft)
11.11.2009 06:32 13,4 C 6,9 C 0,0 UV-I 0,0 C 59 % 91 % 0 % 1006,9 hPa 0,0 l/m 2,6 km/h (1 Bft) 0 min 7,5 km/h (2 Bft)
11.11.2009 06:34 13,4 C 6,8 C 0,0 UV-I 0,0 C 59 % 91 % 0 % 1006,8 hPa 0,0 l/m 2,9 km/h (1 Bft) 0 min 7,5 km/h (2 Bft)
11.11.2009 06:36 13,4 C 6,8 C 0,0 UV-I 0,0 C 59 % 91 % 0 % 1006,8 hPa 0,0 l/m 2,9 km/h (1 Bft) 0 min 4,8 km/h (1 Bft)
11.11.2009 06:38 13,4 C 6,9 C 0,0 UV-I 0,0 C 59 % 91 % 0 % 1006,8 hPa 0,0 l/m 2,6 km/h (1 Bft) 0 min 4,8 km/h (1 Bft)
11.11.2009 06:40 13,4 C 6,9 C 0,0 UV-I 0,0 C 59 % 91 % 0 % 1006,8 hPa 0,0 l/m 2,9 km/h (1 Bft) 0 min 4,6 km/h (1 Bft)
11.11.2009 06:42 13,4 C 6,9 C 0,0 UV-I 0,0 C 59 % 91 % 0 % 1006,8 hPa 0,0 l/m 2,9 km/h (1 Bft) 0 min 4,8 km/h (1 Bft)
11.11.2009 06:46 13,4 C 6,8 C 0,0 UV-I 0,0 C 59 % 91 % 0 % 1006,8 hPa 0,0 l/m 2,6 km/h (1 Bft) 0 min 6,3 km/h (2 Bft)
11.11.2009 06:48 13,4 C 6,9 C 0,0 UV-I 0,0 C 59 % 91 % 0 % 1006,8 hPa 0,0 l/m 2,9 km/h (1 Bft) 0 min 7,0 km/h (2 Bft)
11.11.2009 06:50 13,2 C 6,8 C 0,0 UV-I 0,0 C 59 % 91 % 0 % 1006,8 hPa 0,0 l/m 2,9 km/h (1 Bft) 0 min 7,0 km/h (2 Bft)
11.11.2009 06:52 13,2 C 6,8 C 0,0 UV-I 0,0 C 59 % 91 % 0 % 1006,8 hPa 0,0 l/m 2,6 km/h (1 Bft) 0 min 4,8 km/h (1 Bft)
11.11.2009 06:54 13,2 C 6,8 C 0,0 UV-I 0,0 C 59 % 91 % 0 % 1006,9 hPa 0,0 l/m 2,6 km/h (1 Bft) 0 min 4,8 km/h (1 Bft)
11.11.2009 06:56 13,4 C 6,8 C 0,0 UV-I 0,0 C 59 % 91 % 0 % 1006,9 hPa 0,0 l/m 2,6 km/h (1 Bft) 0 min 3,4 km/h (1 Bft)
11.11.2009 06:58 13,2 C 6,8 C 0,0 UV-I 0,0 C 59 % 91 % 0 % 1006,9 hPa 0,0 l/m 2,4 km/h (1 Bft) 0 min 2,4 km/h (1 Bft)
11.11.2009 07:00 13,2 C 6,9 C 0,0 UV-I 0,0 C 59 % 91 % 0 % 1006,9 hPa 0,0 l/m 2,2 km/h (1 Bft) 0 min 4,8 km/h (1 Bft)
11.11.2009 07:02 13,2 C 6,8 C 0,0 UV-I 0,0 C 59 % 91 % 0 % 1006,9 hPa 0,0 l/m 2,2 km/h (1 Bft) 0 min 5,1 km/h (1 Bft)
11.11.2009 07:04 13,2 C 6,9 C 0,0 UV-I 0,0 C 59 % 91 % 0 % 1006,9 hPa 0,0 l/m 1,9 km/h (1 Bft) 0 min 2,4 km/h (1 Bft)
11.11.2009 07:06 13,2 C 6,9 C 0,0 UV-I 0,0 C 59 % 91 % 0 % 1006,9 hPa 0,0 l/m 1,9 km/h (1 Bft) 0 min 4,3 km/h (1 Bft)
11.11.2009 07:08 13,2 C 6,9 C 0,0 UV-I 0,0 C 59 % 91 % 0 % 1006,9 hPa 0,0 l/m 2,2 km/h (1 Bft) 0 min 4,3 km/h (1 Bft)
11.11.2009 07:10 13,2 C 6,8 C 0,0 UV-I 0,0 C 59 % 91 % 0 % 1006,9 hPa 0,0 l/m 2,2 km/h (1 Bft) 0 min 3,1 km/h (1 Bft)
11.11.2009 07:12 13,2 C 6,9 C 0,0 UV-I 0,0 C 59 % 91 % 0 % 1006,9 hPa 0,0 l/m 1,9 km/h (1 Bft) 0 min 3,1 km/h (1 Bft)
11.11.2009 07:14 13,3 C 6,9 C 0,0 UV-I 0,0 C 59 % 91 % 0 % 1006,9 hPa 0,0 l/m 1,9 km/h (1 Bft) 0 min 8,2 km/h (2 Bft)
11.11.2009 07:16 13,3 C 6,9 C 0,0 UV-I 0,0 C 59 % 91 % 0 % 1006,9 hPa 0,0 l/m 1,9 km/h (1 Bft) 0 min 8,2 km/h (2 Bft)
11.11.2009 07:18 13,3 C 6,8 C 0,0 UV-I 0,0 C 60 % 91 % 0 % 1006,9 hPa 0,0 l/m 1,7 km/h (1 Bft) 0 min 3,4 km/h (1 Bft)
11.11.2009 07:20 13,3 C 6,9 C 0,0 UV-I 0,0 C 59 % 91 % 0 % 1006,9 hPa 0,0 l/m 1,9 km/h (1 Bft) 0 min 3,8 km/h (1 Bft)
11.11.2009 07:22 13,1 C 6,9 C 0,0 UV-I 0,0 C 59 % 91 % 0 % 1006,9 hPa 0,0 l/m 2,2 km/h (1 Bft) 0 min 5,3 km/h (1 Bft)
11.11.2009 07:24 13,1 C 6,9 C 0,0 UV-I 0,0 C 59 % 91 % 0 % 1006,9 hPa 0,0 l/m 2,4 km/h (1 Bft) 0 min 5,3 km/h (1 Bft)
11.11.2009 07:26 13,1 C 6,8 C 0,0 UV-I 0,0 C 60 % 91 % 0 % 1006,9 hPa 0,0 l/m 2,6 km/h (1 Bft) 0 min 7,5 km/h (2 Bft)
11.11.2009 07:28 13,1 C 6,8 C 0,0 UV-I 0,0 C 60 % 91 % 0 % 1006,9 hPa 0,0 l/m 2,6 km/h (1 Bft) 0 min 7,5 km/h (2 Bft)
11.11.2009 07:30 13,1 C 6,9 C 0,0 UV-I 0,0 C 60 % 91 % 0 % 1006,9 hPa 0,0 l/m 2,6 km/h (1 Bft) 0 min 3,8 km/h (1 Bft)
11.11.2009 07:32 13,1 C 6,9 C 0,0 UV-I 0,0 C 60 % 91 % 0 % 1006,9 hPa 0,0 l/m 2,6 km/h (1 Bft) 0 min 3,8 km/h (1 Bft)
11.11.2009 07:34 13,2 C 6,9 C 0,0 UV-I 0,0 C 60 % 91 % 0 % 1007,1 hPa 0,0 l/m 2,4 km/h (1 Bft) 0 min 4,6 km/h (1 Bft)
11.11.2009 07:36 13,2 C 6,9 C 0,0 UV-I 0,0 C 60 % 91 % 0 % 1007,1 hPa 0,0 l/m 2,6 km/h (1 Bft) 0 min 6,3 km/h (2 Bft)
11.11.2009 07:38 13,2 C 6,8 C 0,0 UV-I 0,0 C 60 % 91 % 0 % 1007,1 hPa 0,0 l/m 2,9 km/h (1 Bft) 0 min 6,3 km/h (2 Bft)
11.11.2009 07:40 13,2 C 6,8 C 0,0 UV-I 0,0 C 60 % 92 % 0 % 1007,1 hPa 0,0 l/m 2,9 km/h (1 Bft) 0 min 3,1 km/h (1 Bft)
11.11.2009 07:44 13,2 C 6,7 C 0,0 UV-I 0,0 C 60 % 91 % 0 % 1007,1 hPa 0,0 l/m 2,9 km/h (1 Bft) 0 min 5,1 km/h (1 Bft)
11.11.2009 07:46 13,2 C 6,7 C 0,0 UV-I 0,0 C 60 % 91 % 0 % 1007,1 hPa 0,0 l/m 2,9 km/h (1 Bft) 0 min 5,5 km/h (1 Bft)
11.11.2009 07:48 13,2 C 6,8 C 0,0 UV-I 0,0 C 60 % 91 % 0 % 1007,1 hPa 0,0 l/m 2,4 km/h (1 Bft) 0 min 5,5 km/h (1 Bft)
11.11.2009 07:50 13,2 C 6,7 C 0,0 UV-I 0,0 C 60 % 92 % 0 % 1007,1 hPa 0,0 l/m 2,6 km/h (1 Bft) 0 min 5,8 km/h (2 Bft)
11.11.2009 07:52 13,2 C 6,7 C 0,0 UV-I 0,0 C 60 % 92 % 0 % 1007,1 hPa 0,0 l/m 2,2 km/h (1 Bft) 0 min 5,8 km/h (2 Bft)
11.11.2009 07:54 13,2 C 6,7 C 0,0 UV-I 0,0 C 60 % 92 % 0 % 1007,1 hPa 0,0 l/m 2,4 km/h (1 Bft) 0 min 3,6 km/h (1 Bft)
11.11.2009 07:56 13,2 C 6,7 C 0,0 UV-I 0,0 C 60 % 92 % 0 % 1007,1 hPa 0,0 l/m 2,4 km/h (1 Bft) 0 min 3,6 km/h (1 Bft)
11.11.2009 07:58 13,2 C 6,6 C 0,0 UV-I 0,0 C 60 % 92 % 0 % 1007,1 hPa 0,0 l/m 2,4 km/h (1 Bft) 0 min 5,1 km/h (1 Bft)
11.11.2009 08:02 13,2 C 6,7 C 0,0 UV-I 0,0 C 60 % 92 % 0 % 1007,1 hPa 0,0 l/m 2,4 km/h (1 Bft) 0 min 7,2 km/h (2 Bft)
11.11.2009 08:04 13,2 C 6,7 C 0,0 UV-I 0,0 C 60 % 92 % 0 % 1007,1 hPa 0,0 l/m 2,2 km/h (1 Bft) 0 min 0,0 km/h (0 Bft)
11.11.2009 08:06 13,2 C 6,7 C 0,0 UV-I 0,0 C 60 % 92 % 0 % 1007,1 hPa 0,0 l/m 2,4 km/h (1 Bft) 0 min 4,3 km/h (1 Bft)
11.11.2009 08:08 13,2 C 6,7 C 0,0 UV-I 0,0 C 60 % 92 % 0 % 1007,1 hPa 0,0 l/m 2,6 km/h (1 Bft) 0 min 5,8 km/h (2 Bft)
11.11.2009 08:10 13,2 C 6,6 C 0,0 UV-I 0,0 C 60 % 92 % 0 % 1007,1 hPa 0,0 l/m 2,6 km/h (1 Bft) 0 min 5,8 km/h (2 Bft)
11.11.2009 08:12 13,2 C 6,5 C 0,0 UV-I 0,0 C 60 % 92 % 0 % 1007,1 hPa 0,0 l/m 2,6 km/h (1 Bft) 0 min 5,8 km/h (2 Bft)
11.11.2009 08:14 13,2 C 6,7 C 0,0 UV-I 0,0 C 60 % 92 % 0 % 1007,2 hPa 0,0 l/m 2,9 km/h (1 Bft) 0 min 3,8 km/h (1 Bft)
11.11.2009 08:16 13,2 C 6,6 C 0,0 UV-I 0,0 C 60 % 92 % 0 % 1007,2 hPa 0,0 l/m 3,1 km/h (1 Bft) 0 min 3,8 km/h (1 Bft)
11.11.2009 08:18 13,2 C 6,6 C 0,0 UV-I 0,0 C 60 % 92 % 0 % 1007,2 hPa 0,0 l/m 2,9 km/h (1 Bft) 0 min 3,6 km/h (1 Bft)
11.11.2009 08:20 13,2 C 6,5 C 0,0 UV-I 0,0 C 60 % 92 % 0 % 1007,2 hPa 0,0 l/m 2,4 km/h (1 Bft) 0 min 3,6 km/h (1 Bft)
11.11.2009 08:22 13,1 C 6,6 C 0,0 UV-I 0,0 C 60 % 92 % 0 % 1007,2 hPa 0,0 l/m 2,2 km/h (1 Bft) 0 min 2,9 km/h (1 Bft)
11.11.2009 08:24 13,1 C 6,7 C 0,0 UV-I 0,0 C 60 % 92 % 0 % 1007,2 hPa 0,0 l/m 1,9 km/h (1 Bft) 0 min 2,9 km/h (1 Bft)
11.11.2009 08:26 13,1 C 6,7 C 0,0 UV-I 0,0 C 60 % 92 % 0 % 1007,2 hPa 0,0 l/m 1,9 km/h (1 Bft) 0 min 3,6 km/h (1 Bft)
11.11.2009 08:28 13,1 C 6,7 C 0,0 UV-I 0,0 C 60 % 92 % 0 % 1007,2 hPa 0,0 l/m 1,9 km/h (1 Bft) 0 min 3,6 km/h (1 Bft)
11.11.2009 08:30 13,2 C 6,7 C 0,0 UV-I 0,0 C 60 % 92 % 0 % 1007,2 hPa 0,0 l/m 2,2 km/h (1 Bft) 0 min 2,9 km/h (1 Bft)
11.11.2009 08:32 13,1 C 6,6 C 0,0 UV-I 0,0 C 60 % 92 % 0 % 1007,2 hPa 0,0 l/m 2,6 km/h (1 Bft) 0 min 4,3 km/h (1 Bft)
11.11.2009 08:34 13,1 C 6,7 C 0,0 UV-I 0,0 C 60 % 92 % 0 % 1007,6 hPa 0,0 l/m 3,1 km/h (1 Bft) 0 min 7,2 km/h (2 Bft)
11.11.2009 08:36 13,1 C 6,6 C 0,0 UV-I 0,0 C 60 % 92 % 0 % 1007,6 hPa 0,0 l/m 3,4 km/h (1 Bft) 0 min 7,2 km/h (2 Bft)
11.11.2009 08:38 13,1 C 6,7 C 0,0 UV-I 0,0 C 60 % 92 % 0 % 1007,6 hPa 0,0 l/m 3,4 km/h (1 Bft) 0 min 5,5 km/h (1 Bft)
11.11.2009 08:40 13,1 C 6,7 C 0,0 UV-I 0,0 C 60 % 92 % 0 % 1007,6 hPa 0,0 l/m 3,4 km/h (1 Bft) 0 min 6,5 km/h (2 Bft)
11.11.2009 08:42 13,1 C 6,7 C 0,0 UV-I 0,0 C 60 % 92 % 0 % 1007,6 hPa 0,0 l/m 3,8 km/h (1 Bft) 0 min 9,1 km/h (2 Bft)
11.11.2009 08:44 13,1 C 6,6 C 0,0 UV-I 0,0 C 60 % 92 % 0 % 1007,6 hPa 0,0 l/m 3,6 km/h (1 Bft) 0 min 9,1 km/h (2 Bft)
11.11.2009 08:46 13,1 C 6,7 C 0,0 UV-I 0,0 C 60 % 92 % 0 % 1007,6 hPa 0,0 l/m 3,6 km/h (1 Bft) 0 min 8,2 km/h (2 Bft)
11.11.2009 08:48 13,1 C 6,8 C 0,0 UV-I 0,0 C 60 % 92 % 0 % 1007,6 hPa 0,0 l/m 3,8 km/h (1 Bft) 0 min 6,0 km/h (2 Bft)
11.11.2009 08:50 13,1 C 6,7 C 0,0 UV-I 0,0 C 60 % 92 % 0 % 1007,6 hPa 0,0 l/m 3,8 km/h (1 Bft) 0 min 3,4 km/h (1 Bft)
11.11.2009 08:52 13,2 C 6,7 C 0,0 UV-I 0,0 C 60 % 92 % 0 % 1007,6 hPa 0,0 l/m 3,6 km/h (1 Bft) 0 min 3,4 km/h (1 Bft)
11.11.2009 08:54 13,2 C 6,8 C 0,0 UV-I 0,0 C 60 % 92 % 0 % 1007,2 hPa 0,0 l/m 3,6 km/h (1 Bft) 0 min 6,0 km/h (2 Bft)
11.11.2009 08:56 13,1 C 6,8 C 0,0 UV-I 0,0 C 60 % 92 % 0 % 1007,2 hPa 0,0 l/m 3,6 km/h (1 Bft) 0 min 9,6 km/h (2 Bft)
11.11.2009 08:58 13,1 C 6,8 C 0,0 UV-I 0,0 C 60 % 92 % 0 % 1007,2 hPa 0,0 l/m 3,1 km/h (1 Bft) 0 min 9,6 km/h (2 Bft)
11.11.2009 09:00 13,1 C 6,9 C 0,0 UV-I 0,0 C 61 % 92 % 0 % 1007,2 hPa 0,0 l/m 3,4 km/h (1 Bft) 0 min 7,2 km/h (2 Bft)
11.11.2009 09:02 13,1 C 6,8 C 0,0 UV-I 0,0 C 61 % 92 % 0 % 1007,2 hPa 0,0 l/m 3,6 km/h (1 Bft) 0 min 7,2 km/h (2 Bft)
11.11.2009 09:04 13,2 C 6,8 C 0,0 UV-I 0,0 C 61 % 92 % 0 % 1007,2 hPa 0,0 l/m 3,6 km/h (1 Bft) 0 min 5,8 km/h (2 Bft)
11.11.2009 09:06 13,2 C 6,8 C 0,0 UV-I 0,0 C 61 % 92 % 0 % 1007,2 hPa 0,0 l/m 2,9 km/h (1 Bft) 0 min 5,8 km/h (2 Bft)
11.11.2009 09:08 13,2 C 6,8 C 0,0 UV-I 0,0 C 61 % 92 % 0 % 1007,2 hPa 0,0 l/m 3,1 km/h (1 Bft) 0 min 5,3 km/h (1 Bft)
11.11.2009 09:10 13,2 C 6,9 C 0,0 UV-I 0,0 C 61 % 92 % 0 % 1007,2 hPa 0,0 l/m 2,9 km/h (1 Bft) 0 min 5,3 km/h (1 Bft)
11.11.2009 09:12 13,2 C 6,9 C 0,0 UV-I 0,0 C 61 % 92 % 0 % 1007,2 hPa 0,0 l/m 2,6 km/h (1 Bft) 0 min 5,1 km/h (1 Bft)
11.11.2009 09:14 13,2 C 6,8 C 0,0 UV-I 0,0 C 61 % 92 % 0 % 1007,8 hPa 0,0 l/m 2,2 km/h (1 Bft) 0 min 6,3 km/h (2 Bft)
11.11.2009 09:16 13,2 C 6,9 C 0,0 UV-I 0,0 C 61 % 92 % 0 % 1007,8 hPa 0,0 l/m 2,6 km/h (1 Bft) 0 min 6,3 km/h (2 Bft)
11.11.2009 09:18 13,2 C 6,9 C 0,0 UV-I 0,0 C 61 % 92 % 0 % 1007,8 hPa 0,0 l/m 2,4 km/h (1 Bft) 0 min 3,6 km/h (1 Bft)
11.11.2009 09:20 13,2 C 6,9 C 0,0 UV-I 0,0 C 61 % 92 % 0 % 1007,8 hPa 0,0 l/m 1,9 km/h (1 Bft) 0 min 4,1 km/h (1 Bft)
11.11.2009 09:24 13,1 C 7,1 C 0,0 UV-I 0,0 C 61 % 93 % 0 % 1007,8 hPa 0,0 l/m 1,9 km/h (1 Bft) 0 min 4,3 km/h (1 Bft)
11.11.2009 09:26 13,2 C 7,1 C 0,0 UV-I 0,0 C 61 % 93 % 0 % 1007,8 hPa 0,0 l/m 1,9 km/h (1 Bft) 0 min 6,3 km/h (2 Bft)
11.11.2009 09:28 13,2 C 7,1 C 0,0 UV-I 0,0 C 61 % 93 % 0 % 1007,8 hPa 0,0 l/m 1,7 km/h (1 Bft) 0 min 6,3 km/h (2 Bft)
11.11.2009 09:30 13,2 C 7,1 C 0,0 UV-I 0,0 C 61 % 93 % 0 % 1007,8 hPa 0,0 l/m 2,2 km/h (1 Bft) 0 min 7,7 km/h (2 Bft)
11.11.2009 09:32 13,2 C 7,1 C 0,0 UV-I 0,0 C 61 % 93 % 0 % 1007,8 hPa 0,0 l/m 2,2 km/h (1 Bft) 0 min 7,7 km/h (2 Bft)
11.11.2009 09:34 13,1 C 7,1 C 0,0 UV-I 0,0 C 61 % 93 % 0 % 1007,6 hPa 0,0 l/m 2,4 km/h (1 Bft) 0 min 5,1 km/h (1 Bft)
11.11.2009 09:36 13,1 C 7,2 C 0,0 UV-I 0,0 C 61 % 93 % 0 % 1007,6 hPa 0,0 l/m 2,4 km/h (1 Bft) 0 min 5,1 km/h (1 Bft)
11.11.2009 09:38 13,1 C 7,1 C 0,0 UV-I 0,1 C 61 % 93 % 3 % 1007,6 hPa 0,0 l/m 2,4 km/h (1 Bft) 0 min 3,1 km/h (1 Bft)
11.11.2009 09:40 13,1 C 7,3 C 0,0 UV-I 0,0 C 61 % 93 % 0 % 1007,6 hPa 0,0 l/m 2,6 km/h (1 Bft) 0 min 4,3 km/h (1 Bft)
11.11.2009 09:42 13,1 C 7,2 C 0,0 UV-I 0,0 C 61 % 93 % 0 % 1007,6 hPa 0,0 l/m 2,4 km/h (1 Bft) 0 min 4,3 km/h (1 Bft)
11.11.2009 09:44 13,1 C 7,2 C 0,1 UV-I 0,0 C 61 % 93 % 0 % 1007,6 hPa 0,0 l/m 2,6 km/h (1 Bft) 0 min 3,6 km/h (1 Bft)
11.11.2009 09:46 13,1 C 7,2 C 0,1 UV-I 0,0 C 61 % 93 % 0 % 1007,6 hPa 0,0 l/m 2,4 km/h (1 Bft) 0 min 5,5 km/h (1 Bft)
11.11.2009 09:48 13,1 C 7,2 C 0,1 UV-I 0,0 C 61 % 93 % 0 % 1007,6 hPa 0,0 l/m 2,9 km/h (1 Bft) 0 min 8,9 km/h (2 Bft)
11.11.2009 09:50 13,1 C 7,2 C 0,1 UV-I 0,1 C 61 % 93 % 3 % 1007,6 hPa 0,0 l/m 3,1 km/h (1 Bft) 0 min 8,9 km/h (2 Bft)
11.11.2009 09:52 13,1 C 7,2 C 0,1 UV-I 0,1 C 61 % 93 % 3 % 1007,6 hPa 0,0 l/m 2,9 km/h (1 Bft) 0 min 2,4 km/h (1 Bft)
11.11.2009 09:54 13,3 C 7,2 C 0,0 UV-I 0,2 C 61 % 93 % 6 % 1007,6 hPa 0,0 l/m 3,1 km/h (1 Bft) 0 min 7,7 km/h (2 Bft)
11.11.2009 09:56 13,3 C 7,2 C 0,0 UV-I 0,2 C 61 % 93 % 6 % 1007,6 hPa 0,0 l/m 3,4 km/h (1 Bft) 0 min 7,7 km/h (2 Bft)
11.11.2009 09:58 13,3 C 7,3 C 0,0 UV-I 0,1 C 61 % 93 % 3 % 1007,6 hPa 0,0 l/m 2,9 km/h (1 Bft) 0 min 5,3 km/h (1 Bft)
11.11.2009 10:00 13,2 C 7,4 C 0,2 UV-I 0,1 C 61 % 93 % 3 % 1007,6 hPa 0,0 l/m 2,9 km/h (1 Bft) 0 min 4,6 km/h (1 Bft)
11.11.2009 10:02 13,2 C 7,4 C 0,2 UV-I 0,2 C 61 % 93 % 6 % 1007,6 hPa 0,0 l/m 3,1 km/h (1 Bft) 0 min 4,6 km/h (1 Bft)
11.11.2009 10:04 13,2 C 7,5 C 0,2 UV-I 0,1 C 61 % 93 % 3 % 1007,6 hPa 0,0 l/m 3,4 km/h (1 Bft) 0 min 3,1 km/h (1 Bft)
11.11.2009 10:06 13,2 C 7,5 C 0,2 UV-I 0,2 C 61 % 93 % 6 % 1007,6 hPa 0,0 l/m 2,9 km/h (1 Bft) 0 min 3,8 km/h (1 Bft)
11.11.2009 10:08 13,2 C 7,5 C 0,2 UV-I 0,2 C 61 % 93 % 6 % 1007,6 hPa 0,0 l/m 3,4 km/h (1 Bft) 0 min 9,6 km/h (2 Bft)
11.11.2009 10:10 13,2 C 7,5 C 0,1 UV-I 0,2 C 61 % 93 % 6 % 1007,6 hPa 0,0 l/m 4,1 km/h (1 Bft) 0 min 12,3 km/h (3 Bft)
11.11.2009 10:12 13,2 C 7,5 C 0,1 UV-I 0,2 C 61 % 92 % 6 % 1007,6 hPa 0,0 l/m 3,8 km/h (1 Bft) 0 min 12,3 km/h (3 Bft)
11.11.2009 10:14 13,2 C 7,6 C 0,1 UV-I 0,1 C 61 % 92 % 3 % 1007,6 hPa 0,0 l/m 4,1 km/h (1 Bft) 0 min 5,3 km/h (1 Bft)
11.11.2009 10:16 13,2 C 7,6 C 0,1 UV-I 0,1 C 61 % 92 % 3 % 1007,6 hPa 0,0 l/m 4,3 km/h (1 Bft) 0 min 7,2 km/h (2 Bft)
11.11.2009 10:18 13,2 C 7,6 C 0,1 UV-I 0,2 C 61 % 92 % 6 % 1007,6 hPa 0,0 l/m 4,6 km/h (1 Bft) 0 min 6,7 km/h (2 Bft)
11.11.2009 10:20 13,4 C 7,6 C 0,2 UV-I 0,2 C 62 % 92 % 6 % 1007,6 hPa 0,0 l/m 3,8 km/h (1 Bft) 0 min 6,7 km/h (2 Bft)
11.11.2009 10:22 13,2 C 7,7 C 0,2 UV-I 0,1 C 61 % 92 % 3 % 1007,6 hPa 0,0 l/m 3,8 km/h (1 Bft) 0 min 6,0 km/h (2 Bft)
11.11.2009 10:24 13,4 C 7,6 C 0,1 UV-I 0,2 C 62 % 92 % 6 % 1007,6 hPa 0,0 l/m 4,1 km/h (1 Bft) 0 min 11,1 km/h (2 Bft)
11.11.2009 10:26 13,2 C 7,7 C 0,1 UV-I 0,1 C 61 % 92 % 3 % 1007,6 hPa 0,0 l/m 4,3 km/h (1 Bft) 0 min 11,1 km/h (2 Bft)
11.11.2009 10:28 13,2 C 7,7 C 0,1 UV-I 0,1 C 61 % 92 % 3 % 1007,6 hPa 0,0 l/m 3,8 km/h (1 Bft) 0 min 3,6 km/h (1 Bft)
11.11.2009 10:30 13,4 C 7,6 C 0,1 UV-I 0,2 C 62 % 92 % 6 % 1007,6 hPa 0,0 l/m 4,1 km/h (1 Bft) 0 min 9,9 km/h (2 Bft)
11.11.2009 10:32 13,4 C 7,7 C 0,1 UV-I 0,1 C 62 % 92 % 3 % 1007,6 hPa 0,0 l/m 3,8 km/h (1 Bft) 0 min 0,0 km/h (0 Bft)
11.11.2009 10:34 13,4 C 7,7 C 0,1 UV-I 0,2 C 62 % 92 % 6 % 1007,8 hPa 0,0 l/m 3,1 km/h (1 Bft) 0 min 3,4 km/h (1 Bft)
11.11.2009 10:38 13,4 C 7,9 C 0,1 UV-I 0,0 C 62 % 92 % 0 % 1007,8 hPa 0,0 l/m 2,4 km/h (1 Bft) 0 min 5,8 km/h (2 Bft)
11.11.2009 10:40 13,4 C 7,9 C 0,2 UV-I 0,0 C 62 % 92 % 0 % 1007,8 hPa 0,0 l/m 3,1 km/h (1 Bft) 0 min 4,6 km/h (1 Bft)
11.11.2009 10:42 13,4 C 7,9 C 0,2 UV-I 0,0 C 62 % 92 % 0 % 1007,8 hPa 0,0 l/m 2,9 km/h (1 Bft) 0 min 8,4 km/h (2 Bft)
11.11.2009 10:44 13,4 C 7,9 C 0,2 UV-I 0,0 C 62 % 91 % 0 % 1007,8 hPa 0,0 l/m 3,6 km/h (1 Bft) 0 min 8,4 km/h (2 Bft)
11.11.2009 10:46 13,4 C 7,9 C 0,2 UV-I 0,0 C 62 % 92 % 0 % 1007,8 hPa 0,0 l/m 3,8 km/h (1 Bft) 0 min 7,9 km/h (2 Bft)
11.11.2009 10:48 13,4 C 7,9 C 0,2 UV-I 0,0 C 62 % 91 % 0 % 1007,8 hPa 0,0 l/m 3,8 km/h (1 Bft) 0 min 7,9 km/h (2 Bft)
11.11.2009 10:50 13,4 C 7,8 C 0,3 UV-I 0,1 C 62 % 91 % 3 % 1007,8 hPa 0,0 l/m 3,4 km/h (1 Bft) 0 min 5,1 km/h (1 Bft)
11.11.2009 10:54 13,4 C 7,9 C 0,3 UV-I 0,0 C 62 % 91 % 0 % 1008,2 hPa 0,0 l/m 3,4 km/h (1 Bft) 0 min 5,3 km/h (1 Bft)
11.11.2009 10:56 13,4 C 7,9 C 0,3 UV-I 0,0 C 62 % 91 % 0 % 1008,2 hPa 0,0 l/m 3,4 km/h (1 Bft) 0 min 3,4 km/h (1 Bft)
11.11.2009 10:58 13,4 C 7,9 C 0,3 UV-I 0,0 C 62 % 91 % 0 % 1008,2 hPa 0,0 l/m 3,4 km/h (1 Bft) 0 min 9,4 km/h (2 Bft)
11.11.2009 11:00 13,4 C 7,9 C 0,4 UV-I 0,1 C 62 % 91 % 3 % 1008,2 hPa 0,0 l/m 3,6 km/h (1 Bft) 0 min 9,4 km/h (2 Bft)
11.11.2009 11:02 13,3 C 8,0 C 0,4 UV-I 0,0 C 62 % 91 % 0 % 1008,2 hPa 0,0 l/m 3,6 km/h (1 Bft) 0 min 3,4 km/h (1 Bft)
11.11.2009 11:04 13,4 C 7,9 C 0,3 UV-I 0,1 C 62 % 91 % 3 % 1008,2 hPa 0,0 l/m 3,8 km/h (1 Bft) 0 min 5,8 km/h (2 Bft)
11.11.2009 11:06 13,3 C 8,0 C 0,3 UV-I 0,0 C 62 % 91 % 0 % 1008,2 hPa 0,0 l/m 4,6 km/h (1 Bft) 0 min 5,8 km/h (2 Bft)
11.11.2009 11:08 13,4 C 8,1 C 0,3 UV-I 0,0 C 62 % 91 % 0 % 1008,2 hPa 0,0 l/m 4,8 km/h (1 Bft) 0 min 5,5 km/h (1 Bft)
11.11.2009 11:14 13,4 C 8,0 C 0,3 UV-I 0,1 C 62 % 91 % 3 % 1007,6 hPa 0,0 l/m 4,1 km/h (1 Bft) 0 min 15,2 km/h (3 Bft)
11.11.2009 11:16 13,3 C 8,0 C 0,3 UV-I 0,1 C 62 % 91 % 3 % 1007,6 hPa 0,0 l/m 3,1 km/h (1 Bft) 0 min 3,6 km/h (1 Bft)
11.11.2009 11:18 13,4 C 8,0 C 0,3 UV-I 0,2 C 62 % 91 % 6 % 1007,6 hPa 0,0 l/m 2,4 km/h (1 Bft) 0 min 6,5 km/h (2 Bft)
11.11.2009 11:20 13,4 C 8,0 C 0,2 UV-I 0,2 C 62 % 91 % 6 % 1007,6 hPa 0,0 l/m 2,4 km/h (1 Bft) 0 min 6,5 km/h (2 Bft)
11.11.2009 11:22 13,3 C 8,1 C 0,2 UV-I 0,1 C 62 % 90 % 3 % 1007,6 hPa 0,0 l/m 2,4 km/h (1 Bft) 0 min 6,3 km/h (2 Bft)
11.11.2009 11:24 13,3 C 8,1 C 0,1 UV-I 0,2 C 62 % 90 % 6 % 1007,6 hPa 0,0 l/m 2,6 km/h (1 Bft) 0 min 6,3 km/h (2 Bft)
11.11.2009 11:26 13,3 C 8,1 C 0,1 UV-I 0,2 C 62 % 90 % 6 % 1007,6 hPa 0,0 l/m 2,6 km/h (1 Bft) 0 min 4,8 km/h (1 Bft)
11.11.2009 11:28 13,3 C 8,3 C 0,1 UV-I 0,0 C 62 % 90 % 0 % 1007,6 hPa 0,0 l/m 3,1 km/h (1 Bft) 0 min 6,0 km/h (2 Bft)
11.11.2009 11:30 13,5 C 8,2 C 0,2 UV-I 0,1 C 62 % 90 % 3 % 1007,6 hPa 0,0 l/m 3,1 km/h (1 Bft) 0 min 6,3 km/h (2 Bft)
11.11.2009 11:32 13,5 C 8,3 C 0,2 UV-I 0,0 C 62 % 90 % 0 % 1007,6 hPa 0,0 l/m 3,6 km/h (1 Bft) 0 min 6,3 km/h (2 Bft)
11.11.2009 11:34 13,5 C 8,3 C 0,1 UV-I 0,0 C 62 % 90 % 0 % 1007,6 hPa 0,0 l/m 3,6 km/h (1 Bft) 0 min 6,5 km/h (2 Bft)
11.11.2009 11:36 13,5 C 8,2 C 0,1 UV-I 0,2 C 62 % 90 % 6 % 1007,6 hPa 0,0 l/m 3,4 km/h (1 Bft) 0 min 5,5 km/h (1 Bft)
11.11.2009 11:40 13,5 C 8,3 C 0,1 UV-I 0,1 C 62 % 90 % 3 % 1007,6 hPa 0,0 l/m 2,9 km/h (1 Bft) 0 min 5,5 km/h (1 Bft)
11.11.2009 11:44 13,5 C 8,3 C 0,3 UV-I 0,2 C 62 % 90 % 6 % 1007,6 hPa 0,0 l/m 2,6 km/h (1 Bft) 0 min 5,1 km/h (1 Bft)
11.11.2009 11:46 13,5 C 8,2 C 0,3 UV-I 0,3 C 62 % 90 % 9 % 1007,6 hPa 0,0 l/m 2,2 km/h (1 Bft) 0 min 2,9 km/h (1 Bft)
11.11.2009 11:48 13,5 C 8,3 C 0,3 UV-I 0,2 C 62 % 90 % 6 % 1007,6 hPa 0,0 l/m 1,9 km/h (1 Bft) 0 min 2,9 km/h (1 Bft)
11.11.2009 11:50 13,4 C 8,3 C 0,2 UV-I 0,2 C 62 % 90 % 6 % 1007,6 hPa 0,0 l/m 2,2 km/h (1 Bft) 0 min 2,9 km/h (1 Bft)
11.11.2009 11:52 13,4 C 8,3 C 0,2 UV-I 0,2 C 62 % 90 % 6 % 1007,6 hPa 0,0 l/m 1,9 km/h (1 Bft) 0 min 4,3 km/h (1 Bft)
11.11.2009 11:56 13,6 C 8,4 C 0,0 UV-I 0,0 C 62 % 90 % 0 % 1007,8 hPa 0,0 l/m 1,9 km/h (1 Bft) 0 min 4,6 km/h (1 Bft)
11.11.2009 11:58 13,6 C 8,3 C 0,0 UV-I 0,0 C 62 % 90 % 0 % 1007,8 hPa 0,0 l/m 2,4 km/h (1 Bft) 0 min 3,6 km/h (1 Bft)
11.11.2009 12:00 13,6 C 8,3 C 0,0 UV-I 0,0 C 62 % 90 % 0 % 1007,8 hPa 0,0 l/m 2,2 km/h (1 Bft) 0 min 3,6 km/h (1 Bft)
11.11.2009 12:02 13,6 C 8,3 C 0,0 UV-I 0,0 C 62 % 90 % 0 % 1007,8 hPa 0,0 l/m 2,2 km/h (1 Bft) 0 min 0,0 km/h (0 Bft)
11.11.2009 12:04 13,6 C 8,3 C 0,0 UV-I 0,0 C 62 % 90 % 0 % 1007,8 hPa 0,0 l/m 2,2 km/h (1 Bft) 0 min 0,0 km/h (0 Bft)
11.11.2009 12:06 13,6 C 8,3 C 0,0 UV-I 0,0 C 62 % 90 % 0 % 1007,8 hPa 0,0 l/m 1,7 km/h (1 Bft) 0 min 5,1 km/h (1 Bft)
11.11.2009 12:10 13,6 C 8,3 C 0,2 UV-I 0,0 C 62 % 90 % 0 % 1007,8 hPa 0,0 l/m 1,4 km/h (1 Bft) 0 min 5,5 km/h (1 Bft)
11.11.2009 12:12 13,6 C 8,4 C 0,2 UV-I 0,0 C 62 % 90 % 0 % 1007,8 hPa 0,0 l/m 1,9 km/h (1 Bft) 0 min 5,5 km/h (1 Bft)
11.11.2009 12:14 13,6 C 8,4 C 0,3 UV-I 0,0 C 62 % 90 % 0 % 1007,6 hPa 0,0 l/m 1,9 km/h (1 Bft) 0 min 2,6 km/h (1 Bft)
11.11.2009 12:16 13,6 C 8,4 C 0,3 UV-I 0,0 C 62 % 91 % 0 % 1007,6 hPa 0,0 l/m 1,7 km/h (1 Bft) 0 min 3,1 km/h (1 Bft)
11.11.2009 12:20 13,7 C 8,5 C 0,4 UV-I 0,0 C 62 % 91 % 0 % 1007,6 hPa 0,0 l/m 1,9 km/h (1 Bft) 0 min 5,5 km/h (1 Bft)
11.11.2009 12:22 13,6 C 8,4 C 0,4 UV-I 0,0 C 62 % 90 % 0 % 1007,6 hPa 0,0 l/m 1,4 km/h (1 Bft) 0 min 2,6 km/h (1 Bft)
11.11.2009 12:24 13,6 C 8,4 C 0,4 UV-I 0,0 C 62 % 91 % 0 % 1007,6 hPa 0,0 l/m 1,9 km/h (1 Bft) 0 min 6,7 km/h (2 Bft)
11.11.2009 12:26 13,6 C 8,5 C 0,4 UV-I 0,0 C 62 % 91 % 0 % 1007,6 hPa 0,0 l/m 2,6 km/h (1 Bft) 0 min 6,7 km/h (2 Bft)
11.11.2009 12:28 13,6 C 8,5 C 0,4 UV-I 0,0 C 62 % 91 % 0 % 1007,6 hPa 0,0 l/m 2,9 km/h (1 Bft) 0 min 9,9 km/h (2 Bft)
11.11.2009 12:30 13,6 C 8,5 C 0,3 UV-I 0,0 C 62 % 90 % 0 % 1007,6 hPa 0,0 l/m 2,6 km/h (1 Bft) 0 min 0,0 km/h (0 Bft)
11.11.2009 12:32 13,6 C 8,4 C 0,3 UV-I 0,0 C 62 % 90 % 0 % 1007,6 hPa 0,0 l/m 2,9 km/h (1 Bft) 0 min 0,0 km/h (0 Bft)
11.11.2009 12:36 13,8 C 8,4 C 0,4 UV-I 0,0 C 62 % 90 % 0 % 1008,0 hPa 0,0 l/m 3,1 km/h (1 Bft) 0 min 6,0 km/h (2 Bft)
11.11.2009 12:38 13,8 C 8,4 C 0,4 UV-I 0,0 C 62 % 90 % 0 % 1008,0 hPa 0,0 l/m 3,6 km/h (1 Bft) 0 min 6,0 km/h (2 Bft)
11.11.2009 12:40 13,8 C 8,4 C 0,4 UV-I 0,0 C 62 % 90 % 0 % 1008,0 hPa 0,0 l/m 3,1 km/h (1 Bft) 0 min 2,6 km/h (1 Bft)
11.11.2009 12:42 13,8 C 8,4 C 0,4 UV-I 0,0 C 62 % 90 % 0 % 1008,0 hPa 0,0 l/m 2,6 km/h (1 Bft) 0 min 2,6 km/h (1 Bft)
11.11.2009 12:44 13,8 C 8,4 C 0,4 UV-I 0,0 C 62 % 90 % 0 % 1008,0 hPa 0,0 l/m 2,4 km/h (1 Bft) 0 min 3,1 km/h (1 Bft)
11.11.2009 12:46 13,8 C 8,5 C 0,4 UV-I 0,0 C 62 % 90 % 0 % 1008,0 hPa 0,0 l/m 1,9 km/h (1 Bft) 0 min 3,1 km/h (1 Bft)
11.11.2009 12:48 13,8 C 8,5 C 0,4 UV-I 0,0 C 62 % 90 % 0 % 1008,0 hPa 0,0 l/m 1,9 km/h (1 Bft) 0 min 7,7 km/h (2 Bft)
11.11.2009 12:50 13,8 C 8,6 C 0,4 UV-I 0,0 C 62 % 90 % 0 % 1008,0 hPa 0,0 l/m 1,9 km/h (1 Bft) 0 min 7,7 km/h (2 Bft)
11.11.2009 12:52 13,9 C 8,5 C 0,4 UV-I 0,0 C 62 % 90 % 0 % 1008,0 hPa 0,0 l/m 1,9 km/h (1 Bft) 0 min 5,8 km/h (2 Bft)
11.11.2009 12:54 13,9 C 8,5 C 0,5 UV-I 0,0 C 62 % 90 % 0 % 1007,8 hPa 0,0 l/m 2,2 km/h (1 Bft) 0 min 8,9 km/h (2 Bft)
11.11.2009 12:56 13,9 C 8,5 C 0,5 UV-I 0,0 C 62 % 90 % 0 % 1007,8 hPa 0,0 l/m 2,6 km/h (1 Bft) 0 min 8,9 km/h (2 Bft)
11.11.2009 12:58 13,9 C 8,6 C 0,5 UV-I 0,0 C 62 % 90 % 0 % 1007,8 hPa 0,0 l/m 2,9 km/h (1 Bft) 0 min 4,3 km/h (1 Bft)
11.11.2009 13:00 13,9 C 8,7 C 0,5 UV-I 0,0 C 62 % 90 % 0 % 1007,8 hPa 0,0 l/m 2,2 km/h (1 Bft) 0 min 3,4 km/h (1 Bft)
11.11.2009 13:04 13,8 C 8,7 C 0,9 UV-I 0,1 C 62 % 90 % 3 % 1007,8 hPa 0,0 l/m 2,4 km/h (1 Bft) 0 min 3,4 km/h (1 Bft)
11.11.2009 13:09 14,0 C 8,7 C 0,9 UV-I 0,3 C 62 % 90 % 9 % 1007,8 hPa 0,0 l/m 1,7 km/h (1 Bft) 0 min 4,3 km/h (1 Bft)
11.11.2009 13:14 14,0 C 8,7 C 0,9 UV-I 0,4 C 62 % 89 % 11 % 1008,0 hPa 0,0 l/m 2,4 km/h (1 Bft) 0 min 0,0 km/h (0 Bft)
11.11.2009 13:16 14,0 C 8,7 C 0,9 UV-I 0,4 C 62 % 89 % 11 % 1008,0 hPa 0,0 l/m 2,9 km/h (1 Bft) 0 min 6,0 km/h (2 Bft)
11.11.2009 13:18 14,0 C 8,7 C 0,9 UV-I 0,4 C 62 % 89 % 11 % 1008,0 hPa 0,0 l/m 3,6 km/h (1 Bft) 0 min 7,5 km/h (2 Bft)
11.11.2009 13:20 14,0 C 8,7 C 0,9 UV-I 0,4 C 62 % 89 % 11 % 1008,0 hPa 0,0 l/m 3,6 km/h (1 Bft) 0 min 7,5 km/h (2 Bft)
11.11.2009 13:22 14,0 C 8,8 C 0,9 UV-I 0,4 C 62 % 90 % 11 % 1008,0 hPa 0,0 l/m 3,6 km/h (1 Bft) 0 min 4,1 km/h (1 Bft)
11.11.2009 13:24 14,0 C 8,8 C 0,9 UV-I 0,5 C 62 % 89 % 14 % 1008,0 hPa 0,0 l/m 3,4 km/h (1 Bft) 0 min 4,1 km/h (1 Bft)
11.11.2009 13:26 14,0 C 8,9 C 0,9 UV-I 0,4 C 62 % 89 % 11 % 1008,0 hPa 0,0 l/m 3,1 km/h (1 Bft) 0 min 4,3 km/h (1 Bft)
11.11.2009 13:28 13,9 C 8,8 C 0,9 UV-I 0,5 C 62 % 89 % 14 % 1008,0 hPa 0,0 l/m 2,4 km/h (1 Bft) 0 min 4,3 km/h (1 Bft)
11.11.2009 13:30 13,9 C 8,8 C 0,9 UV-I 0,5 C 62 % 89 % 14 % 1008,0 hPa 0,0 l/m 2,4 km/h (1 Bft) 0 min 3,6 km/h (1 Bft)
11.11.2009 13:32 13,9 C 8,8 C 0,9 UV-I 0,6 C 62 % 89 % 17 % 1008,0 hPa 0,0 l/m 2,6 km/h (1 Bft) 0 min 5,5 km/h (1 Bft)
11.11.2009 13:34 13,9 C 8,9 C 1,1 UV-I 0,5 C 61 % 89 % 14 % 1007,8 hPa 0,0 l/m 2,2 km/h (1 Bft) 0 min 5,5 km/h (1 Bft)
11.11.2009 13:36 13,9 C 8,9 C 1,1 UV-I 0,7 C 61 % 89 % 20 % 1007,8 hPa 0,0 l/m 2,2 km/h (1 Bft) 0 min 6,5 km/h (2 Bft)
11.11.2009 13:38 14,1 C 8,9 C 1,1 UV-I 0,7 C 61 % 89 % 20 % 1007,8 hPa 0,0 l/m 2,2 km/h (1 Bft) 0 min 6,5 km/h (2 Bft)
11.11.2009 13:40 13,9 C 8,9 C 1,1 UV-I 0,7 C 61 % 88 % 20 % 1007,8 hPa 0,0 l/m 2,6 km/h (1 Bft) 0 min 5,3 km/h (1 Bft)
11.11.2009 13:42 14,1 C 9,0 C 1,1 UV-I 0,7 C 61 % 88 % 20 % 1007,8 hPa 0,0 l/m 2,9 km/h (1 Bft) 0 min 5,3 km/h (1 Bft)
11.11.2009 13:44 14,1 C 9,1 C 1,2 UV-I 0,6 C 61 % 88 % 17 % 1007,8 hPa 0,0 l/m 2,6 km/h (1 Bft) 0 min 2,9 km/h (1 Bft)
11.11.2009 13:46 14,1 C 9,1 C 1,2 UV-I 0,7 C 61 % 88 % 20 % 1007,8 hPa 0,0 l/m 2,9 km/h (1 Bft) 0 min 4,6 km/h (1 Bft)
11.11.2009 13:48 14,1 C 9,1 C 1,2 UV-I 0,8 C 61 % 88 % 23 % 1007,8 hPa 0,0 l/m 2,9 km/h (1 Bft) 0 min 8,2 km/h (2 Bft)
11.11.2009 13:50 14,1 C 9,1 C 0,9 UV-I 0,8 C 61 % 88 % 23 % 1007,8 hPa 0,0 l/m 2,9 km/h (1 Bft) 0 min 8,2 km/h (2 Bft)
11.11.2009 13:52 14,2 C 9,1 C 0,9 UV-I 0,8 C 61 % 88 % 23 % 1007,8 hPa 0,0 l/m 2,4 km/h (1 Bft) 0 min 4,1 km/h (1 Bft)
11.11.2009 13:54 14,2 C 9,1 C 0,8 UV-I 0,8 C 61 % 88 % 23 % 1007,9 hPa 0,0 l/m 2,2 km/h (1 Bft) 0 min 3,6 km/h (1 Bft)
11.11.2009 13:56 14,2 C 9,1 C 0,8 UV-I 0,8 C 61 % 87 % 23 % 1007,9 hPa 0,0 l/m 2,4 km/h (1 Bft) 0 min 7,0 km/h (2 Bft)
11.11.2009 13:58 14,2 C 9,1 C 0,8 UV-I 0,8 C 61 % 87 % 23 % 1007,9 hPa 0,0 l/m 2,6 km/h (1 Bft) 0 min 7,0 km/h (2 Bft)
11.11.2009 14:00 14,2 C 9,1 C 0,8 UV-I 0,8 C 61 % 87 % 23 % 1007,9 hPa 0,0 l/m 3,1 km/h (1 Bft) 0 min 5,8 km/h (2 Bft)
11.11.2009 14:02 14,2 C 9,2 C 0,8 UV-I 0,7 C 61 % 87 % 20 % 1007,9 hPa 0,0 l/m 3,1 km/h (1 Bft) 0 min 5,8 km/h (2 Bft)
11.11.2009 14:04 14,2 C 9,3 C 0,8 UV-I 0,6 C 61 % 86 % 17 % 1007,9 hPa 0,0 l/m 3,6 km/h (1 Bft) 0 min 9,1 km/h (2 Bft)
11.11.2009 14:06 14,2 C 9,3 C 0,8 UV-I 0,5 C 61 % 86 % 14 % 1007,9 hPa 0,0 l/m 3,6 km/h (1 Bft) 0 min 9,1 km/h (2 Bft)
11.11.2009 14:08 14,2 C 9,3 C 0,8 UV-I 0,5 C 61 % 85 % 14 % 1007,9 hPa 0,0 l/m 4,1 km/h (1 Bft) 0 min 7,5 km/h (2 Bft)
11.11.2009 14:10 14,2 C 9,3 C 0,9 UV-I 0,5 C 60 % 85 % 14 % 1007,9 hPa 0,0 l/m 4,3 km/h (1 Bft) 0 min 7,5 km/h (2 Bft)
11.11.2009 14:12 14,2 C 9,2 C 0,9 UV-I 0,6 C 60 % 85 % 17 % 1007,9 hPa 0,0 l/m 3,8 km/h (1 Bft) 0 min 5,5 km/h (1 Bft)
11.11.2009 14:14 14,2 C 9,3 C 0,9 UV-I 0,5 C 60 % 85 % 14 % 1007,6 hPa 0,0 l/m 4,1 km/h (1 Bft) 0 min 8,2 km/h (2 Bft)
11.11.2009 14:16 14,2 C 9,3 C 0,9 UV-I 0,5 C 60 % 85 % 14 % 1007,6 hPa 0,0 l/m 3,8 km/h (1 Bft) 0 min 8,2 km/h (2 Bft)
11.11.2009 14:18 14,2 C 9,3 C 0,9 UV-I 0,5 C 60 % 86 % 14 % 1007,6 hPa 0,0 l/m 4,1 km/h (1 Bft) 0 min 4,6 km/h (1 Bft)
11.11.2009 14:20 14,2 C 9,3 C 0,9 UV-I 0,5 C 60 % 86 % 14 % 1007,6 hPa 0,0 l/m 3,4 km/h (1 Bft) 0 min 5,5 km/h (1 Bft)
11.11.2009 14:22 14,2 C 9,3 C 0,9 UV-I 0,5 C 60 % 85 % 14 % 1007,6 hPa 0,0 l/m 3,6 km/h (1 Bft) 0 min 6,0 km/h (2 Bft)
11.11.2009 14:24 14,2 C 9,4 C 1,0 UV-I 0,5 C 60 % 85 % 14 % 1007,6 hPa 0,0 l/m 3,8 km/h (1 Bft) 0 min 7,9 km/h (2 Bft)
11.11.2009 14:26 14,2 C 9,4 C 1,0 UV-I 0,6 C 60 % 85 % 17 % 1007,6 hPa 0,0 l/m 4,1 km/h (1 Bft) 0 min 7,9 km/h (2 Bft)
11.11.2009 14:28 14,2 C 9,5 C 1,0 UV-I 0,6 C 60 % 85 % 17 % 1007,6 hPa 0,0 l/m 4,3 km/h (1 Bft) 0 min 8,2 km/h (2 Bft)
11.11.2009 14:30 14,1 C 9,5 C 1,0 UV-I 0,9 C 60 % 85 % 26 % 1007,6 hPa 0,0 l/m 4,6 km/h (1 Bft) 0 min 8,2 km/h (2 Bft)
11.11.2009 14:32 14,2 C 9,7 C 1,0 UV-I 1,5 C 60 % 85 % 43 % 1007,6 hPa 0,0 l/m 4,6 km/h (1 Bft) 0 min 9,4 km/h (2 Bft)
11.11.2009 14:34 14,1 C 9,6 C 1,2 UV-I 2,4 C 60 % 85 % 69 % 1007,9 hPa 0,0 l/m 4,6 km/h (1 Bft) 2 min 9,4 km/h (2 Bft)
11.11.2009 14:36 14,3 C 9,9 C 1,2 UV-I 2,4 C 60 % 84 % 69 % 1007,9 hPa 0,0 l/m 4,6 km/h (1 Bft) 2 min 8,7 km/h (2 Bft)
11.11.2009 14:38 14,3 C 9,9 C 1,2 UV-I 2,5 C 60 % 84 % 71 % 1007,9 hPa 0,0 l/m 4,8 km/h (1 Bft) 2 min 12,0 km/h (2 Bft)
11.11.2009 14:40 14,3 C 9,8 C 1,1 UV-I 2,5 C 60 % 83 % 71 % 1007,9 hPa 0,0 l/m 4,8 km/h (1 Bft) 2 min 12,0 km/h (2 Bft)
11.11.2009 14:42 14,2 C 9,9 C 1,1 UV-I 2,2 C 60 % 83 % 63 % 1007,9 hPa 0,0 l/m 5,1 km/h (1 Bft) 2 min 7,2 km/h (2 Bft)
11.11.2009 14:44 14,4 C 9,9 C 0,9 UV-I 2,1 C 60 % 83 % 60 % 1007,9 hPa 0,0 l/m 4,8 km/h (1 Bft) 0 min 5,3 km/h (1 Bft)
11.11.2009 14:46 14,4 C 9,9 C 0,9 UV-I 2,3 C 60 % 84 % 66 % 1007,9 hPa 0,0 l/m 4,6 km/h (1 Bft) 2 min 4,3 km/h (1 Bft)
11.11.2009 14:48 14,4 C 9,9 C 0,9 UV-I 2,6 C 60 % 84 % 74 % 1007,9 hPa 0,0 l/m 4,1 km/h (1 Bft) 2 min 3,6 km/h (1 Bft)
11.11.2009 14:50 14,4 C 10,0 C 1,0 UV-I 2,5 C 60 % 84 % 71 % 1007,9 hPa 0,0 l/m 2,9 km/h (1 Bft) 2 min 3,6 km/h (1 Bft)
11.11.2009 14:52 14,3 C 10,0 C 1,0 UV-I 2,7 C 60 % 83 % 77 % 1007,9 hPa 0,0 l/m 2,9 km/h (1 Bft) 2 min 5,5 km/h (1 Bft)
11.11.2009 14:54 14,3 C 10,0 C 0,8 UV-I 2,6 C 60 % 83 % 74 % 1008,0 hPa 0,0 l/m 2,6 km/h (1 Bft) 2 min 5,5 km/h (1 Bft)
11.11.2009 14:56 14,5 C 10,0 C 0,8 UV-I 2,5 C 60 % 82 % 71 % 1008,0 hPa 0,0 l/m 3,1 km/h (1 Bft) 2 min 7,9 km/h (2 Bft)
11.11.2009 14:58 14,5 C 10,0 C 0,8 UV-I 2,2 C 60 % 82 % 63 % 1008,0 hPa 0,0 l/m 3,6 km/h (1 Bft) 2 min 13,0 km/h (3 Bft)
11.11.2009 15:00 14,4 C 10,1 C 0,7 UV-I 1,8 C 59 % 82 % 51 % 1008,0 hPa 0,0 l/m 4,3 km/h (1 Bft) 0 min 13,0 km/h (3 Bft)
11.11.2009 15:02 14,4 C 10,1 C 0,7 UV-I 1,7 C 59 % 82 % 49 % 1008,0 hPa 0,0 l/m 5,3 km/h (1 Bft) 0 min 9,1 km/h (2 Bft)
11.11.2009 15:04 14,4 C 10,1 C 0,5 UV-I 1,6 C 59 % 82 % 46 % 1008,0 hPa 0,0 l/m 5,3 km/h (1 Bft) 0 min 9,1 km/h (2 Bft)
11.11.2009 15:06 14,6 C 10,0 C 0,5 UV-I 1,5 C 59 % 82 % 43 % 1008,0 hPa 0,0 l/m 5,3 km/h (1 Bft) 0 min 6,3 km/h (2 Bft)
11.11.2009 15:08 14,6 C 10,0 C 0,5 UV-I 1,4 C 59 % 82 % 40 % 1008,0 hPa 0,0 l/m 5,1 km/h (1 Bft) 0 min 5,3 km/h (1 Bft)
11.11.2009 15:10 14,6 C 10,0 C 0,2 UV-I 1,1 C 59 % 82 % 31 % 1008,0 hPa 0,0 l/m 4,6 km/h (1 Bft) 0 min 5,3 km/h (1 Bft)
11.11.2009 15:12 14,6 C 10,0 C 0,2 UV-I 0,9 C 59 % 82 % 26 % 1008,0 hPa 0,0 l/m 5,1 km/h (1 Bft) 0 min 9,6 km/h (2 Bft)
11.11.2009 15:14 14,6 C 9,9 C 0,2 UV-I 0,8 C 59 % 82 % 23 % 1007,8 hPa 0,0 l/m 4,3 km/h (1 Bft) 0 min 9,6 km/h (2 Bft)
11.11.2009 15:16 14,6 C 9,9 C 0,2 UV-I 0,7 C 59 % 82 % 20 % 1007,8 hPa 0,0 l/m 4,6 km/h (1 Bft) 0 min 7,9 km/h (2 Bft)
11.11.2009 15:18 14,6 C 9,9 C 0,2 UV-I 0,6 C 59 % 82 % 17 % 1007,8 hPa 0,0 l/m 4,8 km/h (1 Bft) 0 min 7,9 km/h (2 Bft)
11.11.2009 15:20 14,6 C 10,0 C 0,4 UV-I 0,4 C 59 % 82 % 11 % 1007,8 hPa 0,0 l/m 3,8 km/h (1 Bft) 0 min 0,0 km/h (0 Bft)
11.11.2009 15:22 14,6 C 10,0 C 0,4 UV-I 0,5 C 59 % 83 % 14 % 1007,8 hPa 0,0 l/m 2,9 km/h (1 Bft) 0 min 2,9 km/h (1 Bft)
11.11.2009 15:24 14,6 C 9,9 C 0,4 UV-I 0,6 C 59 % 82 % 17 % 1007,8 hPa 0,0 l/m 3,1 km/h (1 Bft) 0 min 8,9 km/h (2 Bft)
11.11.2009 15:26 14,6 C 9,9 C 0,4 UV-I 0,6 C 59 % 82 % 17 % 1007,8 hPa 0,0 l/m 2,6 km/h (1 Bft) 0 min 8,9 km/h (2 Bft)
11.11.2009 15:28 14,6 C 9,9 C 0,4 UV-I 0,6 C 59 % 82 % 17 % 1007,8 hPa 0,0 l/m 1,9 km/h (1 Bft) 0 min 7,2 km/h (2 Bft)
11.11.2009 15:30 14,6 C 10,0 C 0,3 UV-I 0,5 C 59 % 83 % 14 % 1007,8 hPa 0,0 l/m 2,2 km/h (1 Bft) 0 min 2,6 km/h (1 Bft)
11.11.2009 15:32 14,6 C 10,0 C 0,3 UV-I 0,6 C 59 % 83 % 17 % 1007,8 hPa 0,0 l/m 2,2 km/h (1 Bft) 0 min 3,6 km/h (1 Bft)
11.11.2009 15:34 14,6 C 10,0 C 0,2 UV-I 0,8 C 59 % 83 % 23 % 1008,0 hPa 0,0 l/m 2,2 km/h (1 Bft) 0 min 3,6 km/h (1 Bft)
11.11.2009 15:36 14,6 C 10,0 C 0,2 UV-I 1,0 C 59 % 82 % 29 % 1008,0 hPa 0,0 l/m 2,4 km/h (1 Bft) 0 min 3,4 km/h (1 Bft)
11.11.2009 15:38 14,6 C 9,9 C 0,2 UV-I 1,0 C 59 % 82 % 29 % 1008,0 hPa 0,0 l/m 2,9 km/h (1 Bft) 0 min 6,3 km/h (2 Bft)
11.11.2009 15:40 14,6 C 9,9 C 0,0 UV-I 0,8 C 59 % 82 % 23 % 1008,0 hPa 0,0 l/m 3,4 km/h (1 Bft) 0 min 8,7 km/h (2 Bft)
11.11.2009 15:42 14,6 C 10,0 C 0,0 UV-I 0,6 C 59 % 83 % 17 % 1008,0 hPa 0,0 l/m 4,1 km/h (1 Bft) 0 min 8,7 km/h (2 Bft)
11.11.2009 15:44 14,6 C 9,9 C 0,0 UV-I 0,6 C 59 % 83 % 17 % 1008,0 hPa 0,0 l/m 3,6 km/h (1 Bft) 0 min 7,7 km/h (2 Bft)
11.11.2009 15:46 14,6 C 9,9 C 0,0 UV-I 0,6 C 58 % 82 % 17 % 1008,0 hPa 0,0 l/m 3,8 km/h (1 Bft) 0 min 6,5 km/h (2 Bft)
11.11.2009 15:48 14,6 C 10,0 C 0,0 UV-I 0,3 C 58 % 82 % 9 % 1008,0 hPa 0,0 l/m 3,4 km/h (1 Bft) 0 min 2,9 km/h (1 Bft)
11.11.2009 15:50 14,6 C 9,9 C 0,0 UV-I 0,4 C 58 % 83 % 11 % 1008,0 hPa 0,0 l/m 3,1 km/h (1 Bft) 0 min 6,0 km/h (2 Bft)
11.11.2009 15:52 14,6 C 9,9 C 0,0 UV-I 0,4 C 58 % 83 % 11 % 1008,0 hPa 0,0 l/m 2,4 km/h (1 Bft) 0 min 6,0 km/h (2 Bft)
11.11.2009 15:54 14,6 C 9,9 C 0,0 UV-I 0,3 C 58 % 83 % 9 % 1007,9 hPa 0,0 l/m 2,4 km/h (1 Bft) 0 min 4,3 km/h (1 Bft)
11.11.2009 15:56 14,6 C 9,9 C 0,0 UV-I 0,2 C 58 % 83 % 6 % 1007,9 hPa 0,0 l/m 1,9 km/h (1 Bft) 0 min 4,3 km/h (1 Bft)
11.11.2009 15:58 14,6 C 9,9 C 0,0 UV-I 0,2 C 58 % 83 % 6 % 1007,9 hPa 0,0 l/m 2,4 km/h (1 Bft) 0 min 7,5 km/h (2 Bft)
11.11.2009 16:00 14,6 C 9,9 C 0,0 UV-I 0,0 C 58 % 82 % 0 % 1007,9 hPa 0,0 l/m 2,6 km/h (1 Bft) 0 min 7,5 km/h (2 Bft)
11.11.2009 16:02 14,6 C 9,8 C 0,0 UV-I 0,1 C 58 % 82 % 3 % 1007,9 hPa 0,0 l/m 3,1 km/h (1 Bft) 0 min 4,8 km/h (1 Bft)
11.11.2009 16:04 14,6 C 9,8 C 0,1 UV-I 0,0 C 58 % 82 % 0 % 1007,9 hPa 0,0 l/m 2,9 km/h (1 Bft) 0 min 4,8 km/h (1 Bft)
11.11.2009 16:06 14,6 C 9,9 C 0,1 UV-I 0,0 C 58 % 82 % 0 % 1007,9 hPa 0,0 l/m 3,1 km/h (1 Bft) 0 min 5,3 km/h (1 Bft)
11.11.2009 16:08 14,6 C 9,8 C 0,1 UV-I 0,0 C 58 % 82 % 0 % 1007,9 hPa 0,0 l/m 3,1 km/h (1 Bft) 0 min 5,3 km/h (1 Bft)
11.11.2009 16:10 14,4 C 9,9 C 0,0 UV-I 0,0 C 58 % 82 % 0 % 1007,9 hPa 0,0 l/m 2,4 km/h (1 Bft) 0 min 2,6 km/h (1 Bft)
11.11.2009 16:12 14,4 C 9,9 C 0,0 UV-I 0,0 C 58 % 82 % 0 % 1007,9 hPa 0,0 l/m 2,2 km/h (1 Bft) 0 min 3,8 km/h (1 Bft)
11.11.2009 16:14 14,4 C 9,8 C 0,0 UV-I 0,0 C 58 % 82 % 0 % 1007,5 hPa 0,0 l/m 2,6 km/h (1 Bft) 0 min 10,1 km/h (2 Bft)
11.11.2009 16:16 14,4 C 9,9 C 0,0 UV-I 0,0 C 58 % 82 % 0 % 1007,5 hPa 0,0 l/m 2,9 km/h (1 Bft) 0 min 10,1 km/h (2 Bft)
11.11.2009 16:18 14,4 C 9,9 C 0,0 UV-I 0,0 C 58 % 82 % 0 % 1007,5 hPa 0,0 l/m 2,6 km/h (1 Bft) 0 min 2,6 km/h (1 Bft)
11.11.2009 16:20 14,5 C 9,8 C 0,0 UV-I 0,0 C 58 % 82 % 0 % 1007,5 hPa 0,0 l/m 3,4 km/h (1 Bft) 0 min 5,5 km/h (1 Bft)
11.11.2009 16:22 14,5 C 9,7 C 0,0 UV-I 0,0 C 58 % 82 % 0 % 1007,5 hPa 0,0 l/m 3,8 km/h (1 Bft) 0 min 5,5 km/h (1 Bft)
11.11.2009 16:24 14,3 C 9,7 C 0,0 UV-I 0,0 C 58 % 82 % 0 % 1007,5 hPa 0,0 l/m 3,8 km/h (1 Bft) 0 min 5,8 km/h (2 Bft)
11.11.2009 16:26 14,3 C 9,6 C 0,0 UV-I 0,0 C 58 % 82 % 0 % 1007,5 hPa 0,0 l/m 3,8 km/h (1 Bft) 0 min 5,8 km/h (2 Bft)
11.11.2009 16:28 14,3 C 9,6 C 0,0 UV-I 0,0 C 58 % 82 % 0 % 1007,5 hPa 0,0 l/m 3,8 km/h (1 Bft) 0 min 2,9 km/h (1 Bft)
11.11.2009 16:30 14,3 C 9,6 C 0,0 UV-I 0,0 C 58 % 82 % 0 % 1007,5 hPa 0,0 l/m 3,4 km/h (1 Bft) 0 min 0,0 km/h (0 Bft)
11.11.2009 16:32 14,4 C 9,5 C 0,0 UV-I 0,0 C 58 % 82 % 0 % 1007,5 hPa 0,0 l/m 2,9 km/h (1 Bft) 0 min 0,0 km/h (0 Bft)
11.11.2009 16:34 14,4 C 9,5 C 0,0 UV-I 0,0 C 58 % 82 % 0 % 1007,6 hPa 0,0 l/m 2,4 km/h (1 Bft) 0 min 8,4 km/h (2 Bft)
11.11.2009 16:36 14,4 C 9,5 C 0,0 UV-I 0,0 C 58 % 82 % 0 % 1007,6 hPa 0,0 l/m 2,6 km/h (1 Bft) 0 min 8,4 km/h (2 Bft)
11.11.2009 16:38 14,4 C 9,5 C 0,0 UV-I 0,0 C 58 % 82 % 0 % 1007,6 hPa 0,0 l/m 2,4 km/h (1 Bft) 0 min 7,5 km/h (2 Bft)
11.11.2009 16:40 14,2 C 9,4 C 0,0 UV-I 0,0 C 58 % 82 % 0 % 1007,6 hPa 0,0 l/m 3,1 km/h (1 Bft) 0 min 5,5 km/h (1 Bft)
11.11.2009 16:42 14,3 C 9,4 C 0,0 UV-I 0,0 C 58 % 82 % 0 % 1007,6 hPa 0,0 l/m 2,6 km/h (1 Bft) 0 min 5,5 km/h (1 Bft)
11.11.2009 16:44 14,2 C 9,3 C 0,0 UV-I 0,0 C 58 % 82 % 0 % 1007,6 hPa 0,0 l/m 2,6 km/h (1 Bft) 0 min 3,1 km/h (1 Bft)
11.11.2009 16:46 14,2 C 9,3 C 0,0 UV-I 0,0 C 58 % 82 % 0 % 1007,6 hPa 0,0 l/m 2,2 km/h (1 Bft) 0 min 3,1 km/h (1 Bft)
11.11.2009 16:48 14,2 C 9,3 C 0,0 UV-I 0,0 C 58 % 83 % 0 % 1007,6 hPa 0,0 l/m 1,7 km/h (1 Bft) 0 min 5,1 km/h (1 Bft)
11.11.2009 16:50 14,3 C 9,2 C 0,0 UV-I 0,0 C 58 % 83 % 0 % 1007,6 hPa 0,0 l/m 1,2 km/h (1 Bft) 0 min 5,1 km/h (1 Bft)
11.11.2009 16:52 14,3 C 9,2 C 0,0 UV-I 0,0 C 58 % 83 % 0 % 1007,6 hPa 0,0 l/m 1,0 km/h (0 Bft) 0 min 0,0 km/h (0 Bft)
11.11.2009 16:54 14,3 C 9,2 C 0,0 UV-I 0,0 C 58 % 83 % 0 % 1007,8 hPa 0,0 l/m 1,2 km/h (1 Bft) 0 min 0,0 km/h (0 Bft)
11.11.2009 16:56 14,3 C 9,2 C 0,0 UV-I 0,0 C 58 % 83 % 0 % 1007,8 hPa 0,0 l/m 1,2 km/h (1 Bft) 0 min 4,3 km/h (1 Bft)
11.11.2009 16:58 14,3 C 9,1 C 0,0 UV-I 0,0 C 58 % 83 % 0 % 1007,8 hPa 0,0 l/m 1,2 km/h (1 Bft) 0 min 4,3 km/h (1 Bft)
11.11.2009 17:00 14,3 C 9,1 C 0,0 UV-I 0,0 C 58 % 83 % 0 % 1007,8 hPa 0,0 l/m 1,0 km/h (0 Bft) 0 min 3,8 km/h (1 Bft)
11.11.2009 17:02 14,3 C 9,1 C 0,0 UV-I 0,0 C 58 % 83 % 0 % 1007,8 hPa 0,0 l/m 1,2 km/h (1 Bft) 0 min 3,8 km/h (1 Bft)
11.11.2009 17:04 14,2 C 9,1 C 0,0 UV-I 0,0 C 58 % 83 % 0 % 1007,8 hPa 0,0 l/m 1,0 km/h (0 Bft) 0 min 3,6 km/h (1 Bft)
11.11.2009 17:06 14,1 C 9,0 C 0,0 UV-I 0,0 C 58 % 83 % 0 % 1007,8 hPa 0,0 l/m 1,2 km/h (1 Bft) 0 min 3,6 km/h (1 Bft)
11.11.2009 17:08 14,2 C 9,1 C 0,0 UV-I 0,0 C 58 % 83 % 0 % 1007,8 hPa 0,0 l/m 1,0 km/h (0 Bft) 0 min 3,4 km/h (1 Bft)
11.11.2009 17:10 14,2 C 9,1 C 0,0 UV-I 0,0 C 58 % 84 % 0 % 1007,8 hPa 0,0 l/m 1,0 km/h (0 Bft) 0 min 2,6 km/h (1 Bft)
11.11.2009 17:12 14,2 C 9,0 C 0,0 UV-I 0,0 C 58 % 84 % 0 % 1007,8 hPa 0,0 l/m 1,0 km/h (0 Bft) 0 min 3,8 km/h (1 Bft)
11.11.2009 17:14 14,2 C 9,1 C 0,0 UV-I 0,0 C 58 % 84 % 0 % 1007,7 hPa 0,0 l/m 1,0 km/h (0 Bft) 0 min 3,8 km/h (1 Bft)
11.11.2009 17:16 14,2 C 8,9 C 0,0 UV-I 0,0 C 58 % 84 % 0 % 1007,7 hPa 0,0 l/m 1,0 km/h (0 Bft) 0 min 4,3 km/h (1 Bft)
11.11.2009 17:18 14,2 C 8,9 C 0,0 UV-I 0,0 C 58 % 84 % 0 % 1007,7 hPa 0,0 l/m 0,7 km/h (0 Bft) 0 min 4,3 km/h (1 Bft)
11.11.2009 17:20 14,2 C 8,9 C 0,0 UV-I 0,0 C 58 % 84 % 0 % 1007,7 hPa 0,0 l/m 1,0 km/h (0 Bft) 0 min 3,8 km/h (1 Bft)
11.11.2009 17:22 14,2 C 8,9 C 0,0 UV-I 0,0 C 58 % 84 % 0 % 1007,7 hPa 0,0 l/m 1,2 km/h (1 Bft) 0 min 3,8 km/h (1 Bft)
11.11.2009 17:24 14,2 C 8,8 C 0,0 UV-I 0,0 C 58 % 84 % 0 % 1007,7 hPa 0,0 l/m 1,2 km/h (1 Bft) 0 min 5,1 km/h (1 Bft)
11.11.2009 17:26 14,2 C 8,8 C 0,0 UV-I 0,0 C 58 % 84 % 0 % 1007,7 hPa 0,0 l/m 1,2 km/h (1 Bft) 0 min 5,1 km/h (1 Bft)
11.11.2009 17:28 14,2 C 8,8 C 0,0 UV-I 0,0 C 58 % 84 % 0 % 1007,7 hPa 0,0 l/m 1,7 km/h (1 Bft) 0 min 3,4 km/h (1 Bft)
11.11.2009 17:32 14,2 C 8,8 C 0,0 UV-I 0,0 C 58 % 84 % 0 % 1007,7 hPa 0,0 l/m 1,4 km/h (1 Bft) 0 min 3,4 km/h (1 Bft)
11.11.2009 17:34 14,1 C 8,8 C 0,0 UV-I 0,0 C 58 % 84 % 0 % 1007,6 hPa 0,0 l/m 1,4 km/h (1 Bft) 0 min 3,1 km/h (1 Bft)
11.11.2009 17:36 14,1 C 8,8 C 0,0 UV-I 0,0 C 58 % 84 % 0 % 1007,6 hPa 0,0 l/m 1,2 km/h (1 Bft) 0 min 3,6 km/h (1 Bft)
11.11.2009 17:38 14,1 C 8,8 C 0,0 UV-I 0,0 C 58 % 84 % 0 % 1007,6 hPa 0,0 l/m 1,2 km/h (1 Bft) 0 min 4,3 km/h (1 Bft)
11.11.2009 17:40 14,1 C 8,8 C 0,0 UV-I 0,0 C 58 % 84 % 0 % 1007,6 hPa 0,0 l/m 1,2 km/h (1 Bft) 0 min 4,3 km/h (1 Bft)
11.11.2009 17:42 14,1 C 8,7 C 0,0 UV-I 0,0 C 58 % 84 % 0 % 1007,6 hPa 0,0 l/m 1,2 km/h (1 Bft) 0 min 0,0 km/h (0 Bft)
11.11.2009 17:44 14,1 C 8,7 C 0,0 UV-I 0,0 C 58 % 84 % 0 % 1007,6 hPa 0,0 l/m 1,0 km/h (0 Bft) 0 min 0,0 km/h (0 Bft)
11.11.2009 17:46 14,1 C 8,7 C 0,0 UV-I 0,0 C 58 % 85 % 0 % 1007,6 hPa 0,0 l/m 0,7 km/h (0 Bft) 0 min 0,0 km/h (0 Bft)
11.11.2009 17:48 14,1 C 8,7 C 0,0 UV-I 0,0 C 58 % 85 % 0 % 1007,6 hPa 0,0 l/m 0,7 km/h (0 Bft) 0 min 0,0 km/h (0 Bft)
11.11.2009 17:50 14,1 C 8,7 C 0,0 UV-I 0,0 C 58 % 85 % 0 % 1007,6 hPa 0,0 l/m 0,5 km/h (0 Bft) 0 min 0,0 km/h (0 Bft)
11.11.2009 17:52 14,1 C 8,6 C 0,0 UV-I 0,0 C 58 % 85 % 0 % 1007,6 hPa 0,0 l/m 0,5 km/h (0 Bft) 0 min 0,0 km/h (0 Bft)
11.11.2009 17:54 14,1 C 8,6 C 0,0 UV-I 0,0 C 58 % 85 % 0 % 1007,8 hPa 0,0 l/m 0,7 km/h (0 Bft) 0 min 3,1 km/h (1 Bft)
11.11.2009 17:56 14,1 C 8,6 C 0,0 UV-I 0,0 C 58 % 85 % 0 % 1007,8 hPa 0,0 l/m 1,0 km/h (0 Bft) 0 min 3,1 km/h (1 Bft)
11.11.2009 17:58 14,1 C 8,7 C 0,0 UV-I 0,0 C 58 % 85 % 0 % 1007,8 hPa 0,0 l/m 1,0 km/h (0 Bft) 0 min 0,0 km/h (0 Bft)
11.11.2009 18:00 14,1 C 8,7 C 0,0 UV-I 0,0 C 58 % 85 % 0 % 1007,8 hPa 0,0 l/m 1,0 km/h (0 Bft) 0 min 2,6 km/h (1 Bft)
11.11.2009 18:02 14,1 C 8,7 C 0,0 UV-I 0,0 C 58 % 85 % 0 % 1007,8 hPa 0,0 l/m 1,2 km/h (1 Bft) 0 min 2,9 km/h (1 Bft)
11.11.2009 18:04 14,1 C 8,7 C 0,0 UV-I 0,0 C 58 % 85 % 0 % 1007,8 hPa 0,0 l/m 1,0 km/h (0 Bft) 0 min 3,1 km/h (1 Bft)
11.11.2009 18:06 14,1 C 8,7 C 0,0 UV-I 0,0 C 59 % 85 % 0 % 1007,8 hPa 0,0 l/m 1,0 km/h (0 Bft) 0 min 3,1 km/h (1 Bft)
11.11.2009 18:08 13,9 C 8,7 C 0,0 UV-I 0,0 C 59 % 86 % 0 % 1007,8 hPa 0,0 l/m 1,2 km/h (1 Bft) 0 min 3,8 km/h (1 Bft)
11.11.2009 18:10 13,9 C 8,7 C 0,0 UV-I 0,0 C 59 % 86 % 0 % 1007,8 hPa 0,0 l/m 1,4 km/h (1 Bft) 0 min 5,1 km/h (1 Bft)
11.11.2009 18:12 13,9 C 8,6 C 0,0 UV-I 0,0 C 59 % 85 % 0 % 1007,8 hPa 0,0 l/m 1,4 km/h (1 Bft) 0 min 5,1 km/h (1 Bft)
11.11.2009 18:14 13,9 C 8,7 C 0,0 UV-I 0,0 C 59 % 86 % 0 % 1008,0 hPa 0,0 l/m 1,7 km/h (1 Bft) 0 min 0,0 km/h (0 Bft)
11.11.2009 18:16 13,9 C 8,7 C 0,0 UV-I 0,0 C 59 % 86 % 0 % 1008,0 hPa 0,0 l/m 1,4 km/h (1 Bft) 0 min 0,0 km/h (0 Bft)
11.11.2009 18:18 14,0 C 8,6 C 0,0 UV-I 0,0 C 59 % 86 % 0 % 1008,0 hPa 0,0 l/m 1,7 km/h (1 Bft) 0 min 3,6 km/h (1 Bft)
11.11.2009 18:20 13,9 C 8,6 C 0,0 UV-I 0,0 C 59 % 86 % 0 % 1008,0 hPa 0,0 l/m 1,7 km/h (1 Bft) 0 min 3,6 km/h (1 Bft)
11.11.2009 18:22 13,9 C 8,6 C 0,0 UV-I 0,0 C 59 % 86 % 0 % 1008,0 hPa 0,0 l/m 1,2 km/h (1 Bft) 0 min 3,6 km/h (1 Bft)
11.11.2009 18:24 14,0 C 8,5 C 0,0 UV-I 0,0 C 59 % 86 % 0 % 1008,0 hPa 0,0 l/m 1,4 km/h (1 Bft) 0 min 4,6 km/h (1 Bft)
11.11.2009 18:26 14,0 C 8,5 C 0,0 UV-I 0,0 C 59 % 86 % 0 % 1008,0 hPa 0,0 l/m 1,4 km/h (1 Bft) 0 min 4,6 km/h (1 Bft)
11.11.2009 18:28 14,0 C 8,5 C 0,0 UV-I 0,0 C 59 % 86 % 0 % 1008,0 hPa 0,0 l/m 1,0 km/h (0 Bft) 0 min 2,4 km/h (1 Bft)
11.11.2009 18:30 14,0 C 8,5 C 0,0 UV-I 0,0 C 59 % 86 % 0 % 1008,0 hPa 0,0 l/m 0,7 km/h (0 Bft) 0 min 0,0 km/h (0 Bft)
11.11.2009 18:32 14,0 C 8,5 C 0,0 UV-I 0,0 C 59 % 86 % 0 % 1008,0 hPa 0,0 l/m 1,0 km/h (0 Bft) 0 min 3,4 km/h (1 Bft)
11.11.2009 18:34 14,0 C 8,5 C 0,0 UV-I 0,0 C 59 % 86 % 0 % 1008,2 hPa 0,0 l/m 1,2 km/h (1 Bft) 0 min 7,7 km/h (2 Bft)
11.11.2009 18:36 14,0 C 8,5 C 0,0 UV-I 0,0 C 59 % 86 % 0 % 1008,2 hPa 0,0 l/m 1,7 km/h (1 Bft) 0 min 7,7 km/h (2 Bft)
11.11.2009 18:38 14,0 C 8,5 C 0,0 UV-I 0,0 C 59 % 86 % 0 % 1008,2 hPa 0,0 l/m 1,7 km/h (1 Bft) 0 min 6,7 km/h (2 Bft)
11.11.2009 18:40 14,0 C 8,5 C 0,0 UV-I 0,0 C 59 % 86 % 0 % 1008,2 hPa 0,0 l/m 1,7 km/h (1 Bft) 0 min 4,1 km/h (1 Bft)
11.11.2009 18:42 14,0 C 8,5 C 0,0 UV-I 0,0 C 59 % 86 % 0 % 1008,2 hPa 0,0 l/m 1,9 km/h (1 Bft) 0 min 4,1 km/h (1 Bft)
11.11.2009 18:44 14,0 C 8,5 C 0,0 UV-I 0,0 C 59 % 86 % 0 % 1008,2 hPa 0,0 l/m 1,9 km/h (1 Bft) 0 min 3,8 km/h (1 Bft)
11.11.2009 18:46 13,9 C 8,4 C 0,0 UV-I 0,0 C 59 % 85 % 0 % 1008,2 hPa 0,0 l/m 1,7 km/h (1 Bft) 0 min 4,6 km/h (1 Bft)
11.11.2009 18:48 14,0 C 8,5 C 0,0 UV-I 0,0 C 59 % 85 % 0 % 1008,2 hPa 0,0 l/m 1,4 km/h (1 Bft) 0 min 4,6 km/h (1 Bft)
11.11.2009 18:50 14,0 C 8,5 C 0,0 UV-I 0,0 C 59 % 85 % 0 % 1008,2 hPa 0,0 l/m 1,9 km/h (1 Bft) 0 min 4,6 km/h (1 Bft)
11.11.2009 18:52 14,0 C 8,5 C 0,0 UV-I 0,0 C 59 % 85 % 0 % 1008,2 hPa 0,0 l/m 1,9 km/h (1 Bft) 0 min 4,6 km/h (1 Bft)
11.11.2009 18:54 14,0 C 8,5 C 0,0 UV-I 0,0 C 59 % 85 % 0 % 1008,2 hPa 0,0 l/m 2,2 km/h (1 Bft) 0 min 5,3 km/h (1 Bft)
11.11.2009 18:56 14,0 C 8,5 C 0,0 UV-I 0,0 C 59 % 85 % 0 % 1008,2 hPa 0,0 l/m 2,6 km/h (1 Bft) 0 min 5,3 km/h (1 Bft)
11.11.2009 18:58 14,0 C 8,5 C 0,0 UV-I 0,0 C 59 % 85 % 0 % 1008,2 hPa 0,0 l/m 2,6 km/h (1 Bft) 0 min 5,3 km/h (1 Bft)
11.11.2009 19:00 14,0 C 8,5 C 0,0 UV-I 0,0 C 59 % 85 % 0 % 1008,2 hPa 0,0 l/m 2,9 km/h (1 Bft) 0 min 4,8 km/h (1 Bft)
11.11.2009 19:02 14,0 C 8,5 C 0,0 UV-I 0,0 C 58 % 85 % 0 % 1008,2 hPa 0,0 l/m 2,9 km/h (1 Bft) 0 min 4,8 km/h (1 Bft)
11.11.2009 19:04 14,0 C 8,5 C 0,0 UV-I 0,0 C 58 % 84 % 0 % 1008,2 hPa 0,0 l/m 3,1 km/h (1 Bft) 0 min 6,7 km/h (2 Bft)
11.11.2009 19:06 14,0 C 8,5 C 0,0 UV-I 0,0 C 58 % 84 % 0 % 1008,2 hPa 0,0 l/m 3,1 km/h (1 Bft) 0 min 9,1 km/h (2 Bft)
11.11.2009 19:08 14,0 C 8,5 C 0,0 UV-I 0,0 C 58 % 84 % 0 % 1008,2 hPa 0,0 l/m 3,4 km/h (1 Bft) 0 min 9,1 km/h (2 Bft)
11.11.2009 19:10 14,0 C 8,5 C 0,0 UV-I 0,0 C 58 % 84 % 0 % 1008,2 hPa 0,0 l/m 3,6 km/h (1 Bft) 0 min 7,2 km/h (2 Bft)
11.11.2009 19:12 14,0 C 8,5 C 0,0 UV-I 0,0 C 58 % 84 % 0 % 1008,2 hPa 0,0 l/m 3,1 km/h (1 Bft) 0 min 7,2 km/h (2 Bft)
11.11.2009 19:14 13,8 C 8,5 C 0,0 UV-I 0,0 C 58 % 84 % 0 % 1007,8 hPa 0,0 l/m 3,4 km/h (1 Bft) 0 min 4,3 km/h (1 Bft)
11.11.2009 19:16 13,8 C 8,5 C 0,0 UV-I 0,0 C 58 % 84 % 0 % 1007,8 hPa 0,0 l/m 3,4 km/h (1 Bft) 0 min 7,9 km/h (2 Bft)
11.11.2009 19:18 13,8 C 8,5 C 0,0 UV-I 0,0 C 58 % 84 % 0 % 1007,8 hPa 0,0 l/m 3,1 km/h (1 Bft) 0 min 7,9 km/h (2 Bft)
11.11.2009 19:20 13,8 C 8,5 C 0,0 UV-I 0,0 C 58 % 84 % 0 % 1007,8 hPa 0,0 l/m 3,4 km/h (1 Bft) 0 min 7,9 km/h (2 Bft)
11.11.2009 19:24 13,9 C 8,5 C 0,0 UV-I 0,0 C 58 % 84 % 0 % 1007,8 hPa 0,0 l/m 3,8 km/h (1 Bft) 0 min 7,9 km/h (2 Bft)
11.11.2009 19:26 13,9 C 8,4 C 0,0 UV-I 0,0 C 58 % 84 % 0 % 1007,8 hPa 0,0 l/m 4,1 km/h (1 Bft) 0 min 2,9 km/h (1 Bft)
11.11.2009 19:28 13,9 C 8,5 C 0,0 UV-I 0,0 C 58 % 84 % 0 % 1007,8 hPa 0,0 l/m 4,1 km/h (1 Bft) 0 min 7,2 km/h (2 Bft)
11.11.2009 19:30 13,9 C 8,4 C 0,0 UV-I 0,0 C 58 % 84 % 0 % 1007,8 hPa 0,0 l/m 3,4 km/h (1 Bft) 0 min 7,2 km/h (2 Bft)
11.11.2009 19:32 13,8 C 8,4 C 0,0 UV-I 0,0 C 58 % 84 % 0 % 1007,8 hPa 0,0 l/m 3,4 km/h (1 Bft) 0 min 16,1 km/h (3 Bft)
11.11.2009 19:34 13,8 C 8,5 C 0,0 UV-I 0,0 C 58 % 84 % 0 % 1007,9 hPa 0,0 l/m 3,1 km/h (1 Bft) 0 min 5,5 km/h (1 Bft)
11.11.2009 19:36 13,8 C 8,4 C 0,0 UV-I 0,0 C 58 % 83 % 0 % 1007,9 hPa 0,0 l/m 2,6 km/h (1 Bft) 0 min 4,8 km/h (1 Bft)
11.11.2009 19:38 13,9 C 8,4 C 0,0 UV-I 0,0 C 58 % 83 % 0 % 1007,9 hPa 0,0 l/m 3,1 km/h (1 Bft) 0 min 5,5 km/h (1 Bft)
11.11.2009 19:42 13,8 C 8,4 C 0,0 UV-I 0,0 C 58 % 83 % 0 % 1007,9 hPa 0,0 l/m 3,4 km/h (1 Bft) 0 min 5,5 km/h (1 Bft)
11.11.2009 19:44 13,9 C 8,5 C 0,0 UV-I 0,0 C 57 % 83 % 0 % 1007,9 hPa 0,0 l/m 3,8 km/h (1 Bft) 0 min 7,2 km/h (2 Bft)
11.11.2009 19:46 13,8 C 8,4 C 0,0 UV-I 0,0 C 57 % 83 % 0 % 1007,9 hPa 0,0 l/m 3,8 km/h (1 Bft) 0 min 7,2 km/h (2 Bft)
11.11.2009 19:48 13,8 C 8,4 C 0,0 UV-I 0,0 C 57 % 82 % 0 % 1007,9 hPa 0,0 l/m 4,1 km/h (1 Bft) 0 min 6,3 km/h (2 Bft)
11.11.2009 19:50 13,8 C 8,5 C 0,0 UV-I 0,0 C 57 % 82 % 0 % 1007,9 hPa 0,0 l/m 4,3 km/h (1 Bft) 0 min 8,7 km/h (2 Bft)
11.11.2009 19:52 13,8 C 8,5 C 0,0 UV-I 0,0 C 57 % 82 % 0 % 1007,9 hPa 0,0 l/m 4,6 km/h (1 Bft) 0 min 8,7 km/h (2 Bft)
11.11.2009 19:54 13,8 C 8,5 C 0,0 UV-I 0,0 C 57 % 82 % 0 % 1007,8 hPa 0,0 l/m 4,3 km/h (1 Bft) 0 min 5,8 km/h (2 Bft)
11.11.2009 19:56 13,8 C 8,5 C 0,0 UV-I 0,0 C 57 % 82 % 0 % 1007,8 hPa 0,0 l/m 4,1 km/h (1 Bft) 0 min 6,7 km/h (2 Bft)
11.11.2009 19:58 13,8 C 8,5 C 0,0 UV-I 0,0 C 57 % 82 % 0 % 1007,8 hPa 0,0 l/m 4,3 km/h (1 Bft) 0 min 6,7 km/h (2 Bft)
11.11.2009 20:00 13,8 C 8,5 C 0,0 UV-I 0,0 C 57 % 82 % 0 % 1007,8 hPa 0,0 l/m 4,6 km/h (1 Bft) 0 min 8,9 km/h (2 Bft)
11.11.2009 20:02 13,8 C 8,5 C 0,0 UV-I 0,0 C 57 % 82 % 0 % 1007,8 hPa 0,0 l/m 4,1 km/h (1 Bft) 0 min 8,9 km/h (2 Bft)
11.11.2009 20:04 13,8 C 8,4 C 0,0 UV-I 0,0 C 57 % 82 % 0 % 1007,8 hPa 0,0 l/m 4,3 km/h (1 Bft) 0 min 9,9 km/h (2 Bft)
11.11.2009 20:06 13,8 C 8,4 C 0,0 UV-I 0,0 C 57 % 82 % 0 % 1007,8 hPa 0,0 l/m 4,8 km/h (1 Bft) 0 min 9,9 km/h (2 Bft)
11.11.2009 20:08 13,6 C 8,5 C 0,0 UV-I 0,0 C 57 % 82 % 0 % 1007,8 hPa 0,0 l/m 4,3 km/h (1 Bft) 0 min 3,1 km/h (1 Bft)
11.11.2009 20:10 13,6 C 8,4 C 0,0 UV-I 0,0 C 57 % 82 % 0 % 1007,8 hPa 0,0 l/m 4,6 km/h (1 Bft) 0 min 7,5 km/h (2 Bft)
11.11.2009 20:12 13,6 C 8,4 C 0,0 UV-I 0,0 C 57 % 82 % 0 % 1007,8 hPa 0,0 l/m 4,1 km/h (1 Bft) 0 min 7,5 km/h (2 Bft)
11.11.2009 20:14 13,6 C 8,4 C 0,0 UV-I 0,0 C 57 % 82 % 0 % 1007,7 hPa 0,0 l/m 4,6 km/h (1 Bft) 0 min 5,8 km/h (2 Bft)
11.11.2009 20:16 13,6 C 8,4 C 0,0 UV-I 0,0 C 57 % 82 % 0 % 1007,7 hPa 0,0 l/m 4,1 km/h (1 Bft) 0 min 6,0 km/h (2 Bft)
11.11.2009 20:18 13,6 C 8,4 C 0,0 UV-I 0,0 C 57 % 82 % 0 % 1007,7 hPa 0,0 l/m 4,3 km/h (1 Bft) 0 min 3,8 km/h (1 Bft)
11.11.2009 20:20 13,6 C 8,4 C 0,0 UV-I 0,0 C 57 % 82 % 0 % 1007,7 hPa 0,0 l/m 3,8 km/h (1 Bft) 0 min 5,1 km/h (1 Bft)
11.11.2009 20:22 13,6 C 8,4 C 0,0 UV-I 0,0 C 57 % 82 % 0 % 1007,7 hPa 0,0 l/m 3,6 km/h (1 Bft) 0 min 5,1 km/h (1 Bft)
11.11.2009 20:24 13,6 C 8,4 C 0,0 UV-I 0,0 C 57 % 82 % 0 % 1007,7 hPa 0,0 l/m 3,1 km/h (1 Bft) 0 min 3,4 km/h (1 Bft)
11.11.2009 20:26 13,6 C 8,4 C 0,0 UV-I 0,0 C 57 % 82 % 0 % 1007,7 hPa 0,0 l/m 3,8 km/h (1 Bft) 0 min 4,1 km/h (1 Bft)
11.11.2009 20:28 13,6 C 8,5 C 0,0 UV-I 0,0 C 57 % 82 % 0 % 1007,7 hPa 0,0 l/m 3,6 km/h (1 Bft) 0 min 5,1 km/h (1 Bft)
11.11.2009 20:30 13,7 C 8,5 C 0,0 UV-I 0,0 C 57 % 82 % 0 % 1007,7 hPa 0,0 l/m 3,8 km/h (1 Bft) 0 min 5,1 km/h (1 Bft)
11.11.2009 20:32 13,6 C 8,5 C 0,0 UV-I 0,0 C 57 % 82 % 0 % 1007,7 hPa 0,0 l/m 4,1 km/h (1 Bft) 0 min 4,3 km/h (1 Bft)
11.11.2009 20:34 13,7 C 8,4 C 0,0 UV-I 0,0 C 57 % 82 % 0 % 1007,8 hPa 0,0 l/m 3,8 km/h (1 Bft) 0 min 5,3 km/h (1 Bft)
11.11.2009 20:36 13,7 C 8,5 C 0,0 UV-I 0,0 C 57 % 82 % 0 % 1007,8 hPa 0,0 l/m 4,3 km/h (1 Bft) 0 min 5,3 km/h (1 Bft)
11.11.2009 20:38 13,7 C 8,4 C 0,0 UV-I 0,0 C 57 % 82 % 0 % 1007,8 hPa 0,0 l/m 3,8 km/h (1 Bft) 0 min 4,6 km/h (1 Bft)
11.11.2009 20:40 13,7 C 8,4 C 0,0 UV-I 0,0 C 57 % 82 % 0 % 1007,8 hPa 0,0 l/m 4,1 km/h (1 Bft) 0 min 3,6 km/h (1 Bft)
11.11.2009 20:42 13,7 C 8,4 C 0,0 UV-I 0,0 C 57 % 82 % 0 % 1007,8 hPa 0,0 l/m 4,1 km/h (1 Bft) 0 min 6,3 km/h (2 Bft)
11.11.2009 20:44 13,7 C 8,4 C 0,0 UV-I 0,0 C 57 % 82 % 0 % 1007,8 hPa 0,0 l/m 4,6 km/h (1 Bft) 0 min 8,9 km/h (2 Bft)
11.11.2009 20:46 13,7 C 8,3 C 0,0 UV-I 0,0 C 57 % 82 % 0 % 1007,8 hPa 0,0 l/m 4,3 km/h (1 Bft) 0 min 8,9 km/h (2 Bft)
11.11.2009 20:48 13,6 C 8,3 C 0,0 UV-I 0,0 C 57 % 82 % 0 % 1007,8 hPa 0,0 l/m 3,8 km/h (1 Bft) 0 min 5,3 km/h (1 Bft)
11.11.2009 20:50 13,6 C 8,3 C 0,0 UV-I 0,0 C 57 % 82 % 0 % 1007,8 hPa 0,0 l/m 3,8 km/h (1 Bft) 0 min 5,3 km/h (1 Bft)
11.11.2009 20:52 13,6 C 8,3 C 0,0 UV-I 0,0 C 57 % 82 % 0 % 1007,8 hPa 0,0 l/m 4,1 km/h (1 Bft) 0 min 8,7 km/h (2 Bft)
11.11.2009 20:54 13,6 C 8,3 C 0,0 UV-I 0,0 C 57 % 82 % 0 % 1007,9 hPa 0,0 l/m 3,6 km/h (1 Bft) 0 min 6,7 km/h (2 Bft)
11.11.2009 20:56 13,6 C 8,2 C 0,0 UV-I 0,0 C 57 % 82 % 0 % 1007,9 hPa 0,0 l/m 3,4 km/h (1 Bft) 0 min 6,7 km/h (2 Bft)
11.11.2009 20:58 13,6 C 8,2 C 0,0 UV-I 0,0 C 57 % 82 % 0 % 1007,9 hPa 0,0 l/m 3,8 km/h (1 Bft) 0 min 9,1 km/h (2 Bft)
11.11.2009 21:00 13,6 C 8,3 C 0,0 UV-I 0,0 C 57 % 82 % 0 % 1007,9 hPa 0,0 l/m 4,3 km/h (1 Bft) 0 min 11,8 km/h (2 Bft)
11.11.2009 21:02 13,6 C 8,3 C 0,0 UV-I 0,0 C 57 % 82 % 0 % 1007,9 hPa 0,0 l/m 4,6 km/h (1 Bft) 0 min 11,8 km/h (2 Bft)
11.11.2009 21:04 13,6 C 8,3 C 0,0 UV-I 0,0 C 57 % 82 % 0 % 1007,9 hPa 0,0 l/m 4,6 km/h (1 Bft) 0 min 4,6 km/h (1 Bft)
11.11.2009 21:06 13,6 C 8,3 C 0,0 UV-I 0,0 C 57 % 82 % 0 % 1007,9 hPa 0,0 l/m 4,3 km/h (1 Bft) 0 min 3,4 km/h (1 Bft)
11.11.2009 21:08 13,6 C 8,2 C 0,0 UV-I 0,0 C 57 % 82 % 0 % 1007,9 hPa 0,0 l/m 4,6 km/h (1 Bft) 0 min 6,7 km/h (2 Bft)
11.11.2009 21:10 13,6 C 8,2 C 0,0 UV-I 0,0 C 57 % 82 % 0 % 1007,9 hPa 0,0 l/m 4,1 km/h (1 Bft) 0 min 6,7 km/h (2 Bft)
11.11.2009 21:12 13,6 C 8,1 C 0,0 UV-I 0,0 C 57 % 82 % 0 % 1007,9 hPa 0,0 l/m 3,1 km/h (1 Bft) 0 min 4,1 km/h (1 Bft)
11.11.2009 21:14 13,6 C 8,1 C 0,0 UV-I 0,0 C 57 % 82 % 0 % 1007,7 hPa 0,0 l/m 3,1 km/h (1 Bft) 0 min 6,7 km/h (2 Bft)
11.11.2009 21:16 13,6 C 8,1 C 0,0 UV-I 0,0 C 57 % 82 % 0 % 1007,7 hPa 0,0 l/m 3,6 km/h (1 Bft) 0 min 6,7 km/h (2 Bft)
11.11.2009 21:18 13,6 C 8,1 C 0,0 UV-I 0,0 C 57 % 82 % 0 % 1007,7 hPa 0,0 l/m 3,4 km/h (1 Bft) 0 min 5,5 km/h (1 Bft)
11.11.2009 21:20 13,6 C 8,1 C 0,0 UV-I 0,0 C 57 % 82 % 0 % 1007,7 hPa 0,0 l/m 3,4 km/h (1 Bft) 0 min 7,2 km/h (2 Bft)
11.11.2009 21:22 13,6 C 8,0 C 0,0 UV-I 0,0 C 57 % 82 % 0 % 1007,7 hPa 0,0 l/m 3,8 km/h (1 Bft) 0 min 7,9 km/h (2 Bft)
11.11.2009 21:24 13,6 C 8,0 C 0,0 UV-I 0,0 C 57 % 82 % 0 % 1007,7 hPa 0,0 l/m 3,8 km/h (1 Bft) 0 min 7,9 km/h (2 Bft)
11.11.2009 21:26 13,6 C 8,0 C 0,0 UV-I 0,0 C 57 % 82 % 0 % 1007,7 hPa 0,0 l/m 3,6 km/h (1 Bft) 0 min 3,8 km/h (1 Bft)
11.11.2009 21:28 13,6 C 8,0 C 0,0 UV-I 0,0 C 57 % 82 % 0 % 1007,7 hPa 0,0 l/m 3,4 km/h (1 Bft) 0 min 3,8 km/h (1 Bft)
11.11.2009 21:30 13,6 C 8,0 C 0,0 UV-I 0,0 C 57 % 82 % 0 % 1007,7 hPa 0,0 l/m 3,1 km/h (1 Bft) 0 min 3,6 km/h (1 Bft)
11.11.2009 21:32 13,6 C 8,0 C 0,0 UV-I 0,0 C 57 % 82 % 0 % 1007,7 hPa 0,0 l/m 2,4 km/h (1 Bft) 0 min 3,4 km/h (1 Bft)
11.11.2009 21:34 13,6 C 8,0 C 0,0 UV-I 0,0 C 57 % 82 % 0 % 1008,0 hPa 0,0 l/m 2,2 km/h (1 Bft) 0 min 5,3 km/h (1 Bft)
11.11.2009 21:36 13,6 C 8,0 C 0,0 UV-I 0,0 C 57 % 82 % 0 % 1008,0 hPa 0,0 l/m 2,2 km/h (1 Bft) 0 min 5,3 km/h (1 Bft)
11.11.2009 21:38 13,6 C 7,9 C 0,0 UV-I 0,0 C 56 % 82 % 0 % 1008,0 hPa 0,0 l/m 2,6 km/h (1 Bft) 0 min 7,5 km/h (2 Bft)
11.11.2009 21:40 13,6 C 7,9 C 0,0 UV-I 0,0 C 56 % 82 % 0 % 1008,0 hPa 0,0 l/m 2,9 km/h (1 Bft) 0 min 7,5 km/h (2 Bft)
11.11.2009 21:42 13,6 C 7,9 C 0,0 UV-I 0,0 C 56 % 82 % 0 % 1008,0 hPa 0,0 l/m 3,1 km/h (1 Bft) 0 min 4,3 km/h (1 Bft)
11.11.2009 21:44 13,6 C 7,9 C 0,0 UV-I 0,0 C 56 % 82 % 0 % 1008,0 hPa 0,0 l/m 3,1 km/h (1 Bft) 0 min 3,8 km/h (1 Bft)
11.11.2009 21:46 13,6 C 7,8 C 0,0 UV-I 0,0 C 56 % 82 % 0 % 1008,0 hPa 0,0 l/m 3,4 km/h (1 Bft) 0 min 7,2 km/h (2 Bft)
11.11.2009 21:48 13,6 C 7,9 C 0,0 UV-I 0,0 C 56 % 82 % 0 % 1008,0 hPa 0,0 l/m 3,1 km/h (1 Bft) 0 min 7,2 km/h (2 Bft)
11.11.2009 21:50 13,6 C 7,9 C 0,0 UV-I 0,0 C 56 % 82 % 0 % 1008,0 hPa 0,0 l/m 3,4 km/h (1 Bft) 0 min 10,3 km/h (2 Bft)
11.11.2009 21:52 13,6 C 7,9 C 0,0 UV-I 0,0 C 56 % 82 % 0 % 1008,0 hPa 0,0 l/m 3,1 km/h (1 Bft) 0 min 10,3 km/h (2 Bft)
11.11.2009 21:54 13,6 C 7,8 C 0,0 UV-I 0,0 C 56 % 82 % 0 % 1008,0 hPa 0,0 l/m 3,1 km/h (1 Bft) 0 min 2,4 km/h (1 Bft)
11.11.2009 21:56 13,6 C 7,7 C 0,0 UV-I 0,0 C 56 % 82 % 0 % 1008,0 hPa 0,0 l/m 2,4 km/h (1 Bft) 0 min 0,0 km/h (0 Bft)
11.11.2009 21:58 13,6 C 7,7 C 0,0 UV-I 0,0 C 56 % 82 % 0 % 1008,0 hPa 0,0 l/m 2,6 km/h (1 Bft) 0 min 4,6 km/h (1 Bft)
11.11.2009 22:00 13,6 C 7,7 C 0,0 UV-I 0,0 C 56 % 82 % 0 % 1008,0 hPa 0,0 l/m 2,4 km/h (1 Bft) 0 min 4,6 km/h (1 Bft)
11.11.2009 22:02 13,6 C 7,6 C 0,0 UV-I 0,0 C 56 % 82 % 0 % 1008,0 hPa 0,0 l/m 2,2 km/h (1 Bft) 0 min 5,1 km/h (1 Bft)
11.11.2009 22:04 13,6 C 7,6 C 0,0 UV-I 0,0 C 56 % 82 % 0 % 1008,0 hPa 0,0 l/m 2,4 km/h (1 Bft) 0 min 5,1 km/h (1 Bft)
11.11.2009 22:08 13,4 C 7,7 C 0,0 UV-I 0,0 C 56 % 82 % 0 % 1008,0 hPa 0,0 l/m 2,6 km/h (1 Bft) 0 min 5,3 km/h (1 Bft)
11.11.2009 22:10 13,6 C 7,7 C 0,0 UV-I 0,0 C 56 % 82 % 0 % 1008,0 hPa 0,0 l/m 2,6 km/h (1 Bft) 0 min 5,3 km/h (1 Bft)
11.11.2009 22:12 13,4 C 7,6 C 0,0 UV-I 0,0 C 56 % 82 % 0 % 1008,0 hPa 0,0 l/m 2,4 km/h (1 Bft) 0 min 3,4 km/h (1 Bft)
11.11.2009 22:14 13,4 C 7,6 C 0,0 UV-I 0,0 C 56 % 82 % 0 % 1008,1 hPa 0,0 l/m 2,2 km/h (1 Bft) 0 min 2,4 km/h (1 Bft)
11.11.2009 22:16 13,4 C 7,5 C 0,0 UV-I 0,0 C 56 % 82 % 0 % 1008,1 hPa 0,0 l/m 1,9 km/h (1 Bft) 0 min 8,4 km/h (2 Bft)
11.11.2009 22:18 13,4 C 7,5 C 0,0 UV-I 0,0 C 56 % 82 % 0 % 1008,1 hPa 0,0 l/m 1,9 km/h (1 Bft) 0 min 8,4 km/h (2 Bft)
11.11.2009 22:20 13,5 C 7,5 C 0,0 UV-I 0,0 C 56 % 82 % 0 % 1008,1 hPa 0,0 l/m 1,9 km/h (1 Bft) 0 min 7,9 km/h (2 Bft)
11.11.2009 22:22 13,4 C 7,4 C 0,0 UV-I 0,0 C 56 % 82 % 0 % 1008,1 hPa 0,0 l/m 2,2 km/h (1 Bft) 0 min 7,9 km/h (2 Bft)
11.11.2009 22:24 13,5 C 7,4 C 0,0 UV-I 0,0 C 56 % 82 % 0 % 1008,1 hPa 0,0 l/m 2,2 km/h (1 Bft) 0 min 3,4 km/h (1 Bft)
11.11.2009 22:26 13,4 C 7,5 C 0,0 UV-I 0,0 C 56 % 82 % 0 % 1008,1 hPa 0,0 l/m 2,2 km/h (1 Bft) 0 min 4,6 km/h (1 Bft)
11.11.2009 22:28 13,5 C 7,5 C 0,0 UV-I 0,0 C 56 % 82 % 0 % 1008,1 hPa 0,0 l/m 2,4 km/h (1 Bft) 0 min 4,6 km/h (1 Bft)
11.11.2009 22:32 13,5 C 7,5 C 0,0 UV-I 0,0 C 56 % 83 % 0 % 1008,1 hPa 0,0 l/m 1,9 km/h (1 Bft) 0 min 4,3 km/h (1 Bft)
11.11.2009 22:34 13,5 C 7,3 C 0,0 UV-I 0,0 C 56 % 83 % 0 % 1008,1 hPa 0,0 l/m 1,9 km/h (1 Bft) 0 min 4,3 km/h (1 Bft)
11.11.2009 22:36 13,5 C 7,3 C 0,0 UV-I 0,0 C 56 % 83 % 0 % 1008,1 hPa 0,0 l/m 1,7 km/h (1 Bft) 0 min 2,9 km/h (1 Bft)
11.11.2009 22:38 13,5 C 7,3 C 0,0 UV-I 0,0 C 56 % 83 % 0 % 1008,1 hPa 0,0 l/m 1,2 km/h (1 Bft) 0 min 0,0 km/h (0 Bft)
11.11.2009 22:40 13,5 C 7,3 C 0,0 UV-I 0,0 C 56 % 83 % 0 % 1008,1 hPa 0,0 l/m 1,2 km/h (1 Bft) 0 min 5,8 km/h (2 Bft)
11.11.2009 22:42 13,5 C 7,2 C 0,0 UV-I 0,0 C 56 % 83 % 0 % 1008,1 hPa 0,0 l/m 1,2 km/h (1 Bft) 0 min 5,8 km/h (2 Bft)
11.11.2009 22:44 13,5 C 7,2 C 0,0 UV-I 0,0 C 56 % 83 % 0 % 1008,1 hPa 0,0 l/m 1,0 km/h (0 Bft) 0 min 3,8 km/h (1 Bft)
11.11.2009 22:46 13,5 C 7,2 C 0,0 UV-I 0,0 C 56 % 83 % 0 % 1008,1 hPa 0,0 l/m 0,7 km/h (0 Bft) 0 min 3,8 km/h (1 Bft)
11.11.2009 22:48 13,5 C 7,3 C 0,0 UV-I 0,0 C 56 % 83 % 0 % 1008,1 hPa 0,0 l/m 1,0 km/h (0 Bft) 0 min 2,6 km/h (1 Bft)
11.11.2009 22:50 13,5 C 7,2 C 0,0 UV-I 0,0 C 56 % 83 % 0 % 1008,1 hPa 0,0 l/m 1,2 km/h (1 Bft) 0 min 3,4 km/h (1 Bft)
11.11.2009 22:52 13,5 C 7,2 C 0,0 UV-I 0,0 C 56 % 83 % 0 % 1008,1 hPa 0,0 l/m 1,0 km/h (0 Bft) 0 min 3,4 km/h (1 Bft)
11.11.2009 22:54 13,5 C 7,2 C 0,0 UV-I 0,0 C 56 % 83 % 0 % 1007,9 hPa 0,0 l/m 1,0 km/h (0 Bft) 0 min 2,9 km/h (1 Bft)
11.11.2009 22:56 13,5 C 7,1 C 0,0 UV-I 0,0 C 56 % 83 % 0 % 1007,9 hPa 0,0 l/m 1,0 km/h (0 Bft) 0 min 3,8 km/h (1 Bft)
11.11.2009 22:58 13,3 C 7,1 C 0,0 UV-I 0,0 C 55 % 83 % 0 % 1007,9 hPa 0,0 l/m 1,2 km/h (1 Bft) 0 min 3,8 km/h (1 Bft)
11.11.2009 23:00 13,3 C 7,1 C 0,0 UV-I 0,0 C 56 % 83 % 0 % 1007,9 hPa 0,0 l/m 1,0 km/h (0 Bft) 0 min 0,0 km/h (0 Bft)
11.11.2009 23:04 13,3 C 7,0 C 0,0 UV-I 0,0 C 56 % 82 % 0 % 1007,9 hPa 0,0 l/m 1,0 km/h (0 Bft) 0 min 2,9 km/h (1 Bft)
11.11.2009 23:06 13,3 C 7,1 C 0,0 UV-I 0,0 C 55 % 83 % 0 % 1007,9 hPa 0,0 l/m 1,0 km/h (0 Bft) 0 min 0,0 km/h (0 Bft)
11.11.2009 23:08 13,3 C 7,1 C 0,0 UV-I 0,0 C 55 % 83 % 0 % 1007,9 hPa 0,0 l/m 1,0 km/h (0 Bft) 0 min 0,0 km/h (0 Bft)
11.11.2009 23:10 13,4 C 7,0 C 0,0 UV-I 0,0 C 55 % 83 % 0 % 1007,9 hPa 0,0 l/m 0,7 km/h (0 Bft) 0 min 3,8 km/h (1 Bft)
11.11.2009 23:12 13,4 C 6,9 C 0,0 UV-I 0,0 C 55 % 83 % 0 % 1007,9 hPa 0,0 l/m 1,0 km/h (0 Bft) 0 min 5,5 km/h (1 Bft)
11.11.2009 23:14 13,3 C 6,9 C 0,0 UV-I 0,0 C 55 % 83 % 0 % 1007,9 hPa 0,0 l/m 0,7 km/h (0 Bft) 0 min 5,5 km/h (1 Bft)
11.11.2009 23:16 13,4 C 6,9 C 0,0 UV-I 0,0 C 55 % 83 % 0 % 1007,9 hPa 0,0 l/m 0,7 km/h (0 Bft) 0 min 0,0 km/h (0 Bft)
11.11.2009 23:18 13,4 C 6,8 C 0,0 UV-I 0,0 C 55 % 83 % 0 % 1007,9 hPa 0,0 l/m 0,7 km/h (0 Bft) 0 min 0,0 km/h (0 Bft)
11.11.2009 23:20 13,4 C 6,9 C 0,0 UV-I 0,0 C 55 % 83 % 0 % 1007,9 hPa 0,0 l/m 0,5 km/h (0 Bft) 0 min 0,0 km/h (0 Bft)
11.11.2009 23:22 13,4 C 6,8 C 0,0 UV-I 0,0 C 55 % 83 % 0 % 1007,9 hPa 0,0 l/m 0,5 km/h (0 Bft) 0 min 0,0 km/h (0 Bft)
11.11.2009 23:24 13,4 C 6,8 C 0,0 UV-I 0,0 C 55 % 83 % 0 % 1007,9 hPa 0,0 l/m 0,2 km/h (0 Bft) 0 min 0,0 km/h (0 Bft)
11.11.2009 23:26 13,4 C 6,7 C 0,0 UV-I 0,0 C 55 % 83 % 0 % 1007,9 hPa 0,0 l/m 0,0 km/h (0 Bft) 0 min 0,0 km/h (0 Bft)
11.11.2009 23:28 13,4 C 6,6 C 0,0 UV-I 0,0 C 55 % 84 % 0 % 1007,9 hPa 0,0 l/m 0,0 km/h (0 Bft) 0 min 0,0 km/h (0 Bft)
11.11.2009 23:30 13,4 C 6,7 C 0,0 UV-I 0,0 C 55 % 84 % 0 % 1007,9 hPa 0,0 l/m 0,0 km/h (0 Bft) 0 min 0,0 km/h (0 Bft)
11.11.2009 23:32 13,4 C 6,5 C 0,0 UV-I 0,0 C 55 % 84 % 0 % 1007,9 hPa 0,0 l/m 0,0 km/h (0 Bft) 0 min 3,4 km/h (1 Bft)
11.11.2009 23:34 13,4 C 6,5 C 0,0 UV-I 0,0 C 55 % 84 % 0 % 1007,7 hPa 0,0 l/m 0,0 km/h (0 Bft) 0 min 3,4 km/h (1 Bft)
11.11.2009 23:36 13,4 C 6,4 C 0,0 UV-I 0,0 C 55 % 84 % 0 % 1007,7 hPa 0,0 l/m 0,2 km/h (0 Bft) 0 min 2,9 km/h (1 Bft)
11.11.2009 23:38 13,4 C 6,4 C 0,0 UV-I 0,0 C 55 % 84 % 0 % 1007,7 hPa 0,0 l/m 0,2 km/h (0 Bft) 0 min 2,9 km/h (1 Bft)
11.11.2009 23:40 13,4 C 6,4 C 0,0 UV-I 0,0 C 55 % 84 % 0 % 1007,7 hPa 0,0 l/m 0,5 km/h (0 Bft) 0 min 3,4 km/h (1 Bft)
11.11.2009 23:42 13,2 C 6,3 C 0,0 UV-I 0,0 C 55 % 84 % 0 % 1007,7 hPa 0,0 l/m 0,5 km/h (0 Bft) 0 min 3,4 km/h (1 Bft)
11.11.2009 23:44 13,2 C 6,3 C 0,0 UV-I 0,0 C 55 % 84 % 0 % 1007,7 hPa 0,0 l/m 0,5 km/h (0 Bft) 0 min 0,0 km/h (0 Bft)
11.11.2009 23:46 13,2 C 6,3 C 0,0 UV-I 0,0 C 55 % 84 % 0 % 1007,7 hPa 0,0 l/m 0,2 km/h (0 Bft) 0 min 0,0 km/h (0 Bft)
11.11.2009 23:48 13,4 C 6,3 C 0,0 UV-I 0,0 C 55 % 84 % 0 % 1007,7 hPa 0,0 l/m 0,2 km/h (0 Bft) 0 min 0,0 km/h (0 Bft)
11.11.2009 23:50 13,2 C 6,3 C 0,0 UV-I 0,0 C 55 % 84 % 0 % 1007,7 hPa 0,0 l/m 0,2 km/h (0 Bft) 0 min 0,0 km/h (0 Bft)
11.11.2009 23:52 13,2 C 6,2 C 0,0 UV-I 0,0 C 55 % 84 % 0 % 1007,7 hPa 0,0 l/m 0,0 km/h (0 Bft) 0 min 0,0 km/h (0 Bft)
11.11.2009 23:54 13,2 C 6,1 C 0,0 UV-I 0,0 C 55 % 84 % 0 % 1007,6 hPa 0,0 l/m 0,0 km/h (0 Bft) 0 min 0,0 km/h (0 Bft)
11.11.2009 23:56 13,2 C 6,1 C 0,0 UV-I 0,0 C 55 % 84 % 0 % 1007,6 hPa 0,0 l/m 0,0 km/h (0 Bft) 0 min 0,0 km/h (0 Bft)
11.11.2009 23:58 13,2 C 6,0 C 0,0 UV-I 0,0 C 55 % 84 % 0 % 1007,6 hPa 0,0 l/m 0,0 km/h (0 Bft) 0 min 0,0 km/h (0 Bft)
_ Min-Zeit 07:22 23:58 00:06 00:06 22:58 14:56 00:06 05:14 - 23:26 - 04:46
Minimum _ 13,1 C 6,0 C 0,0 UV-I 0,0 C 55 % 82 % 0 % 1006,6 hPa - 0,0 km/h (0 Bft) - 0,0 km/h (0 Bft)
_ Max-Zeit 15:06 15:00 13:44 14:52 10:20 09:24 14:52 10:54 00:06 15:02 14:34 19:32
Maximum _ 14,6 C 10,1 C 1,2 UV-I 2,7 C 62 % 93 % 77 % 1008,2 hPa 0,0 l/m 5,3 km/h
N-NO (1 Bft)
2 min 16,1 km/h
SO (3 Bft)
Durchschnitt _ 13,7 C 7,8 C 0,1 UV-I 0,1 C 59 % 88 % 3 % 1007,6 hPa #0,0 l/m 2,6 km/h (1 Bft) #24 min. 5,3 km/h (1 Bft)
© 2012 W. Hausmann